Time,TemperatureF,DewpointF,PressureIn,WindDirection,WindDirectionDegrees,WindSpeedMPH,WindSpeedGustMPH,Humidity,HourlyPrecipIn,Conditions,Clouds,dailyrainin,SolarRadiationWatts/m^2,SoftwareType,DateUTC
2013-12-13 00:01:00,22.7,10.2,30.25,West,268,4.0,4.0,58,0.00,,,0.00,0,WeatherCatV1.20B785,2013-12-13 05:01:00,
2013-12-13 00:02:00,22.8,11.0,30.25,West,261,4.0,5.0,60,0.00,,,0.00,0,WeatherCatV1.20B785,2013-12-13 05:02:00,
2013-12-13 00:06:00,23.0,10.4,30.25,WSW,256,4.0,5.0,58,0.00,,,0.00,0,WeatherCatV1.20B785,2013-12-13 05:06:00,
2013-12-13 00:07:00,23.1,11.3,30.25,West,275,5.0,5.0,60,0.00,,,0.00,0,WeatherCatV1.20B785,2013-12-13 05:07:00,
2013-12-13 00:08:00,23.3,10.7,30.24,WSW,254,3.0,5.0,58,0.00,,,0.00,0,WeatherCatV1.20B785,2013-12-13 05:08:00,
2013-12-13 00:11:00,23.5,11.3,30.25,West,269,3.0,4.0,59,0.00,,,0.00,0,WeatherCatV1.20B785,2013-12-13 05:11:00,
2013-12-13 00:13:00,23.5,10.9,30.25,WSW,251,3.0,6.0,58,0.00,,,0.00,0,WeatherCatV1.20B785,2013-12-13 05:13:00,
2013-12-13 00:14:00,23.5,10.9,30.25,West,277,2.0,6.0,58,0.00,,,0.00,0,WeatherCatV1.20B785,2013-12-13 05:14:00,
2013-12-13 00:16:00,23.5,11.3,30.25,WSW,252,3.0,5.0,59,0.00,,,0.00,0,WeatherCatV1.20B785,2013-12-13 05:16:00,
2013-12-13 00:17:00,23.4,11.2,30.25,WSW,250,3.0,4.0,59,0.00,,,0.00,0,WeatherCatV1.20B785,2013-12-13 05:17:00,
2013-12-13 00:18:00,23.4,11.2,30.25,West,262,3.0,4.0,59,0.00,,,0.00,0,WeatherCatV1.20B785,2013-12-13 05:18:00,
2013-12-13 00:19:00,23.5,11.3,30.25,WSW,256,3.0,3.0,59,0.00,,,0.00,0,WeatherCatV1.20B785,2013-12-13 05:19:00,
2013-12-13 00:21:00,23.5,10.9,30.24,WSW,256,3.0,5.0,58,0.00,,,0.00,0,WeatherCatV1.20B785,2013-12-13 05:21:00,
2013-12-13 00:23:00,23.6,11.0,30.25,West,260,4.0,5.0,58,0.00,,,0.00,0,WeatherCatV1.20B785,2013-12-13 05:23:00,
2013-12-13 00:24:00,23.6,11.0,30.25,West,266,4.0,5.0,58,0.00,,,0.00,0,WeatherCatV1.20B785,2013-12-13 05:24:00,
2013-12-13 00:27:00,23.8,10.8,30.25,West,260,6.0,6.0,57,0.00,,,0.00,0,WeatherCatV1.20B785,2013-12-13 05:27:00,
2013-12-13 00:28:00,24.0,10.6,30.25,WSW,239,5.0,7.0,56,0.00,,,0.00,0,WeatherCatV1.20B785,2013-12-13 05:28:00,
2013-12-13 00:29:00,24.1,10.7,30.25,WSW,237,6.0,7.0,56,0.00,,,0.00,0,WeatherCatV1.20B785,2013-12-13 05:29:00,
2013-12-13 00:32:00,24.6,10.4,30.24,WSW,246,4.0,6.0,54,0.00,,,0.00,0,WeatherCatV1.20B785,2013-12-13 05:32:00,
2013-12-13 00:35:00,25.0,10.3,30.24,West,266,4.0,8.0,53,0.00,,,0.00,0,WeatherCatV1.20B785,2013-12-13 05:35:00,
2013-12-13 00:36:00,25.1,10.8,30.24,West,264,5.0,8.0,54,0.00,,,0.00,0,WeatherCatV1.20B785,2013-12-13 05:36:00,
2013-12-13 00:37:00,25.2,10.9,30.24,West,268,7.0,7.0,54,0.00,,,0.00,0,WeatherCatV1.20B785,2013-12-13 05:37:00,
2013-12-13 00:40:00,25.4,10.7,30.24,WNW,283,3.0,6.0,53,0.00,,,0.00,0,WeatherCatV1.20B785,2013-12-13 05:40:00,
2013-12-13 00:41:00,25.4,10.7,30.24,WSW,247,6.0,8.0,53,0.00,,,0.00,0,WeatherCatV1.20B785,2013-12-13 05:41:00,
2013-12-13 00:42:00,25.6,10.4,30.24,WSW,258,5.0,9.0,52,0.00,,,0.00,0,WeatherCatV1.20B785,2013-12-13 05:42:00,
2013-12-13 00:45:00,25.7,10.5,30.24,WSW,237,4.0,6.0,52,0.00,,,0.00,0,WeatherCatV1.20B785,2013-12-13 05:45:00,
2013-12-13 00:46:00,25.7,10.5,30.24,West,278,5.0,9.0,52,0.00,,,0.00,0,WeatherCatV1.20B785,2013-12-13 05:46:00,
2013-12-13 00:47:00,25.7,11.0,30.24,West,273,3.0,9.0,53,0.00,,,0.00,0,WeatherCatV1.20B785,2013-12-13 05:47:00,
2013-12-13 00:48:00,25.6,11.3,30.23,WNW,303,5.0,8.0,54,0.00,,,0.00,0,WeatherCatV1.20B785,2013-12-13 05:48:00,
2013-12-13 00:51:00,25.6,11.3,30.23,West,273,5.0,6.0,54,0.00,,,0.00,0,WeatherCatV1.20B785,2013-12-13 05:51:00,
2013-12-13 00:52:00,25.6,10.9,30.24,West,262,5.0,7.0,53,0.00,,,0.00,0,WeatherCatV1.20B785,2013-12-13 05:52:00,
2013-12-13 00:53:00,25.6,10.9,30.24,West,264,5.0,7.0,53,0.00,,,0.00,0,WeatherCatV1.20B785,2013-12-13 05:53:00,
2013-12-13 00:55:00,25.7,11.4,30.23,WSW,255,6.0,7.0,54,0.00,,,0.00,0,WeatherCatV1.20B785,2013-12-13 05:55:00,
2013-12-13 00:56:00,25.7,11.0,30.23,West,273,4.0,7.0,53,0.00,,,0.00,0,WeatherCatV1.20B785,2013-12-13 05:56:00,
2013-12-13 00:57:00,25.7,11.0,30.23,West,264,3.0,4.0,53,0.00,,,0.00,0,WeatherCatV1.20B785,2013-12-13 05:57:00,
2013-12-13 00:58:00,25.7,11.0,30.23,WSW,243,3.0,5.0,53,0.00,,,0.00,0,WeatherCatV1.20B785,2013-12-13 05:58:00,
2013-12-13 01:00:00,25.7,11.0,30.23,WSW,252,4.0,5.0,53,0.00,,,0.00,0,WeatherCatV1.20B785,2013-12-13 06:00:00,
2013-12-13 01:01:00,25.7,11.0,30.23,WSW,248,4.0,6.0,53,0.00,,,0.00,0,WeatherCatV1.20B785,2013-12-13 06:01:00,
2013-12-13 01:02:00,25.8,11.1,30.23,West,260,3.0,6.0,53,0.00,,,0.00,0,WeatherCatV1.20B785,2013-12-13 06:02:00,
2013-12-13 01:03:00,25.7,11.4,30.23,West,266,3.0,4.0,54,0.00,,,0.00,0,WeatherCatV1.20B785,2013-12-13 06:03:00,
2013-12-13 01:05:00,25.8,10.6,30.23,West,259,3.0,5.0,52,0.00,,,0.00,0,WeatherCatV1.20B785,2013-12-13 06:05:00,
2013-12-13 01:06:00,26.0,10.8,30.23,WSW,255,3.0,6.0,52,0.00,,,0.00,0,WeatherCatV1.20B785,2013-12-13 06:06:00,
2013-12-13 01:07:00,26.0,11.2,30.23,WSW,258,3.0,6.0,53,0.00,,,0.00,0,WeatherCatV1.20B785,2013-12-13 06:07:00,
2013-12-13 01:08:00,26.0,11.2,30.23,West,263,4.0,4.0,53,0.00,,,0.00,0,WeatherCatV1.20B785,2013-12-13 06:08:00,
2013-12-13 01:09:00,26.0,11.2,30.23,WSW,256,3.0,4.0,53,0.00,,,0.00,0,WeatherCatV1.20B785,2013-12-13 06:09:00,
2013-12-13 01:10:00,26.0,11.2,30.23,WSW,250,3.0,7.0,53,0.00,,,0.00,0,WeatherCatV1.20B785,2013-12-13 06:10:00,
2013-12-13 01:11:00,26.0,10.8,30.23,West,259,4.0,7.0,52,0.00,,,0.00,0,WeatherCatV1.20B785,2013-12-13 06:11:00,
2013-12-13 01:13:00,26.0,11.2,30.23,WSW,256,4.0,5.0,53,0.00,,,0.00,0,WeatherCatV1.20B785,2013-12-13 06:13:00,
2013-12-13 01:14:00,25.9,12.0,30.23,WSW,254,3.0,4.0,55,0.00,,,0.00,0,WeatherCatV1.20B785,2013-12-13 06:14:00,
2013-12-13 01:16:00,25.8,11.5,30.23,WSW,250,4.0,8.0,54,0.00,,,0.00,0,WeatherCatV1.20B785,2013-12-13 06:16:00,
2013-12-13 01:18:00,25.8,11.1,30.22,West,264,5.0,5.0,53,0.00,,,0.00,0,WeatherCatV1.20B785,2013-12-13 06:18:00,
2013-12-13 01:19:00,25.9,11.1,30.22,WSW,241,4.0,8.0,53,0.00,,,0.00,0,WeatherCatV1.20B785,2013-12-13 06:19:00,
2013-12-13 01:20:00,26.1,10.5,30.22,WSW,258,4.0,8.0,51,0.00,,,0.00,0,WeatherCatV1.20B785,2013-12-13 06:20:00,
2013-12-13 01:21:00,26.3,11.1,30.23,West,265,3.0,8.0,52,0.00,,,0.00,0,WeatherCatV1.20B785,2013-12-13 06:21:00,
2013-12-13 01:22:00,26.3,11.1,30.22,West,266,5.0,6.0,52,0.00,,,0.00,0,WeatherCatV1.20B785,2013-12-13 06:22:00,
2013-12-13 01:23:00,26.4,11.2,30.23,WNW,283,3.0,5.0,52,0.00,,,0.00,0,WeatherCatV1.20B785,2013-12-13 06:23:00,
2013-12-13 01:24:00,26.4,11.2,30.23,West,260,4.0,5.0,52,0.00,,,0.00,0,WeatherCatV1.20B785,2013-12-13 06:24:00,
2013-12-13 01:25:00,26.5,10.9,30.22,WSW,256,4.0,8.0,51,0.00,,,0.00,0,WeatherCatV1.20B785,2013-12-13 06:25:00,
2013-12-13 01:27:00,26.5,11.3,30.23,West,259,4.0,4.0,52,0.00,,,0.00,0,WeatherCatV1.20B785,2013-12-13 06:27:00,
2013-12-13 01:28:00,26.5,10.9,30.22,West,262,4.0,6.0,51,0.00,,,0.00,0,WeatherCatV1.20B785,2013-12-13 06:28:00,
2013-12-13 01:29:00,26.6,11.4,30.22,WSW,247,5.0,6.0,52,0.00,,,0.00,0,WeatherCatV1.20B785,2013-12-13 06:29:00,
2013-12-13 01:31:00,26.6,10.5,30.22,WSW,256,2.0,6.0,50,0.00,,,0.00,0,WeatherCatV1.20B785,2013-12-13 06:31:00,
2013-12-13 01:32:00,26.7,11.0,30.22,WSW,248,4.0,6.0,51,0.00,,,0.00,0,WeatherCatV1.20B785,2013-12-13 06:32:00,
2013-12-13 01:34:00,26.6,11.4,30.22,WNW,288,3.0,4.0,52,0.00,,,0.00,0,WeatherCatV1.20B785,2013-12-13 06:34:00,
2013-12-13 01:37:00,26.6,10.5,30.23,WSW,247,3.0,7.0,50,0.00,,,0.00,0,WeatherCatV1.20B785,2013-12-13 06:37:00,
2013-12-13 01:38:00,26.6,10.5,30.23,West,266,3.0,7.0,50,0.00,,,0.00,0,WeatherCatV1.20B785,2013-12-13 06:38:00,
2013-12-13 01:39:00,26.7,11.0,30.23,West,269,4.0,6.0,51,0.00,,,0.00,0,WeatherCatV1.20B785,2013-12-13 06:39:00,
2013-12-13 01:43:00,26.7,10.6,30.23,WSW,250,4.0,7.0,50,0.00,,,0.00,0,WeatherCatV1.20B785,2013-12-13 06:43:00,
2013-12-13 01:44:00,26.7,10.6,30.23,West,270,3.0,6.0,50,0.00,,,0.00,0,WeatherCatV1.20B785,2013-12-13 06:44:00,
2013-12-13 01:45:00,26.7,10.6,30.23,West,262,2.0,6.0,50,0.00,,,0.00,0,WeatherCatV1.20B785,2013-12-13 06:45:00,
2013-12-13 01:48:00,26.7,11.0,30.23,West,261,3.0,5.0,51,0.00,,,0.00,0,WeatherCatV1.20B785,2013-12-13 06:48:00,
2013-12-13 01:49:00,26.7,10.6,30.23,West,262,2.0,5.0,50,0.00,,,0.00,0,WeatherCatV1.20B785,2013-12-13 06:49:00,
2013-12-13 01:50:00,26.7,10.6,30.23,West,277,3.0,5.0,50,0.00,,,0.00,0,WeatherCatV1.20B785,2013-12-13 06:50:00,
2013-12-13 01:53:00,26.5,11.3,30.23,WSW,258,2.0,4.0,52,0.00,,,0.00,0,WeatherCatV1.20B785,2013-12-13 06:53:00,
2013-12-13 01:54:00,26.4,10.3,30.23,WSW,257,2.0,5.0,50,0.00,,,0.00,0,WeatherCatV1.20B785,2013-12-13 06:54:00,
2013-12-13 01:55:00,26.4,10.3,30.23,WSW,256,2.0,5.0,50,0.00,,,0.00,0,WeatherCatV1.20B785,2013-12-13 06:55:00,
2013-12-13 01:59:00,26.5,10.9,30.23,WSW,258,3.0,5.0,51,0.00,,,0.00,0,WeatherCatV1.20B785,2013-12-13 06:59:00,
2013-12-13 02:00:00,26.4,11.2,30.23,WSW,241,2.0,4.0,52,0.00,,,0.00,0,WeatherCatV1.20B785,2013-12-13 07:00:00,
2013-12-13 02:01:00,26.3,11.5,30.23,WSW,243,2.0,4.0,53,0.00,,,0.00,0,WeatherCatV1.20B785,2013-12-13 07:01:00,
2013-12-13 02:04:00,26.1,10.9,30.23,WSW,254,3.0,4.0,52,0.00,,,0.00,0,WeatherCatV1.20B785,2013-12-13 07:04:00,
2013-12-13 02:05:00,26.1,10.9,30.23,WSW,252,2.0,3.0,52,0.00,,,0.00,0,WeatherCatV1.20B785,2013-12-13 07:05:00,
2013-12-13 02:06:00,25.9,11.1,30.23,West,262,0.0,3.0,53,0.00,,,0.00,0,WeatherCatV1.20B785,2013-12-13 07:06:00,
2013-12-13 02:09:00,25.3,10.6,30.24,West,268,0.0,4.0,53,0.00,,,0.00,0,WeatherCatV1.20B785,2013-12-13 07:09:00,
2013-12-13 02:10:00,25.2,10.5,30.24,SW,229,0.0,1.0,53,0.00,,,0.00,0,WeatherCatV1.20B785,2013-12-13 07:10:00,
2013-12-13 02:11:00,24.7,10.4,30.24,SE,139,1.0,1.0,54,0.00,,,0.00,0,WeatherCatV1.20B785,2013-12-13 07:11:00,
2013-12-13 02:13:00,24.2,10.0,30.24,WNW,300,4.0,7.0,54,0.00,,,0.00,0,WeatherCatV1.20B785,2013-12-13 07:13:00,
2013-12-13 02:15:00,23.8,9.6,30.24,NW,314,1.0,7.0,54,0.00,,,0.00,0,WeatherCatV1.20B785,2013-12-13 07:15:00,
2013-12-13 02:16:00,23.4,9.6,30.24,West,270,0.0,1.0,55,0.00,,,0.00,0,WeatherCatV1.20B785,2013-12-13 07:16:00,
2013-12-13 02:17:00,23.4,9.6,30.24,West,269,1.0,1.0,55,0.00,,,0.00,0,WeatherCatV1.20B785,2013-12-13 07:17:00,
2013-12-13 02:18:00,22.9,9.6,30.24,East,80,1.0,2.0,56,0.00,,,0.00,0,WeatherCatV1.20B785,2013-12-13 07:18:00,
2013-12-13 02:19:00,22.8,9.9,30.24,East,86,2.0,2.0,57,0.00,,,0.00,0,WeatherCatV1.20B785,2013-12-13 07:19:00,
2013-12-13 02:20:00,22.3,9.4,30.24,East,94,1.0,2.0,57,0.00,,,0.00,0,WeatherCatV1.20B785,2013-12-13 07:20:00,
2013-12-13 02:22:00,21.8,9.3,30.24,SE,125,3.0,3.0,58,0.00,,,0.00,0,WeatherCatV1.20B785,2013-12-13 07:22:00,
2013-12-13 02:23:00,21.6,9.5,30.24,ESE,119,3.0,4.0,59,0.00,,,0.00,0,WeatherCatV1.20B785,2013-12-13 07:23:00,
2013-12-13 02:24:00,21.3,9.2,30.24,SE,125,1.0,4.0,59,0.00,,,0.00,0,WeatherCatV1.20B785,2013-12-13 07:24:00,
2013-12-13 02:25:00,20.9,9.2,30.24,SE,133,2.0,2.0,60,0.00,,,0.00,0,WeatherCatV1.20B785,2013-12-13 07:25:00,
2013-12-13 02:26:00,20.9,9.2,30.24,SE,133,3.0,3.0,60,0.00,,,0.00,0,WeatherCatV1.20B785,2013-12-13 07:26:00,
2013-12-13 02:27:00,20.6,9.3,30.24,SE,134,1.0,3.0,61,0.00,,,0.00,0,WeatherCatV1.20B785,2013-12-13 07:27:00,
2013-12-13 02:28:00,20.5,9.2,30.24,SE,135,1.0,2.0,61,0.00,,,0.00,0,WeatherCatV1.20B785,2013-12-13 07:28:00,
2013-12-13 02:29:00,20.4,9.1,30.24,SE,135,0.0,2.0,61,0.00,,,0.00,0,WeatherCatV1.20B785,2013-12-13 07:29:00,
2013-12-13 02:31:00,20.1,9.2,30.24,SSE,148,0.0,2.0,62,0.00,,,0.00,0,WeatherCatV1.20B785,2013-12-13 07:31:00,
2013-12-13 02:33:00,19.8,9.3,30.24,SE,146,0.0,1.0,63,0.00,,,0.00,0,WeatherCatV1.20B785,2013-12-13 07:33:00,
2013-12-13 02:36:00,19.7,9.5,30.24,SSE,164,0.0,1.0,64,0.00,,,0.00,0,WeatherCatV1.20B785,2013-12-13 07:36:00,
2013-12-13 02:38:00,19.5,9.3,30.24,SSE,164,0.0,1.0,64,0.00,,,0.00,0,WeatherCatV1.20B785,2013-12-13 07:38:00,
2013-12-13 02:39:00,19.5,9.7,30.24,SSE,164,0.0,0.0,65,0.00,,,0.00,0,WeatherCatV1.20B785,2013-12-13 07:39:00,
2013-12-13 02:41:00,19.5,10.0,30.24,SSE,164,0.0,0.0,66,0.00,,,0.00,0,WeatherCatV1.20B785,2013-12-13 07:41:00,
2013-12-13 02:44:00,19.4,10.3,30.24,SSE,163,0.0,1.0,67,0.00,,,0.00,0,WeatherCatV1.20B785,2013-12-13 07:44:00,
2013-12-13 02:45:00,19.3,10.2,30.24,South,171,1.0,1.0,67,0.00,,,0.00,0,WeatherCatV1.20B785,2013-12-13 07:45:00,
2013-12-13 02:46:00,19.3,10.5,30.24,ESE,118,0.0,2.0,68,0.00,,,0.00,0,WeatherCatV1.20B785,2013-12-13 07:46:00,
2013-12-13 02:48:00,19.3,10.2,30.24,SSE,150,0.0,1.0,67,0.00,,,0.00,0,WeatherCatV1.20B785,2013-12-13 07:48:00,
2013-12-13 02:49:00,19.3,10.5,30.24,SSE,162,0.0,1.0,68,0.00,,,0.00,0,WeatherCatV1.20B785,2013-12-13 07:49:00,
2013-12-13 02:50:00,19.2,10.4,30.24,SSE,162,0.0,0.0,68,0.00,,,0.00,0,WeatherCatV1.20B785,2013-12-13 07:50:00,
2013-12-13 02:51:00,19.2,10.1,30.24,SSE,163,0.0,1.0,67,0.00,,,0.00,0,WeatherCatV1.20B785,2013-12-13 07:51:00,
2013-12-13 02:52:00,19.2,10.1,30.24,SSE,163,0.0,0.0,67,0.00,,,0.00,0,WeatherCatV1.20B785,2013-12-13 07:52:00,
2013-12-13 02:53:00,19.1,10.0,30.24,SSE,163,0.0,0.0,67,0.00,,,0.00,0,WeatherCatV1.20B785,2013-12-13 07:53:00,
2013-12-13 02:54:00,19.1,10.0,30.24,SSE,163,0.0,0.0,67,0.00,,,0.00,0,WeatherCatV1.20B785,2013-12-13 07:54:00,
2013-12-13 02:55:00,19.0,9.9,30.24,SSE,163,0.0,0.0,67,0.00,,,0.00,0,WeatherCatV1.20B785,2013-12-13 07:55:00,
2013-12-13 02:56:00,19.0,10.2,30.24,SSE,163,0.0,0.0,68,0.00,,,0.00,0,WeatherCatV1.20B785,2013-12-13 07:56:00,
2013-12-13 02:57:00,19.0,10.2,30.24,SSE,163,0.0,0.0,68,0.00,,,0.00,0,WeatherCatV1.20B785,2013-12-13 07:57:00,
2013-12-13 02:59:00,18.9,10.1,30.24,SSE,163,0.0,0.0,68,0.00,,,0.00,0,WeatherCatV1.20B785,2013-12-13 07:59:00,
2013-12-13 03:00:00,18.8,10.3,30.24,SSE,163,0.0,0.0,69,0.00,,,0.00,0,WeatherCatV1.20B785,2013-12-13 08:00:00,
2013-12-13 03:02:00,18.7,10.2,30.24,SSE,163,0.0,1.0,69,0.00,,,0.00,0,WeatherCatV1.20B785,2013-12-13 08:02:00,
2013-12-13 03:04:00,18.7,10.2,30.24,SSE,163,0.0,0.0,69,0.00,,,0.00,0,WeatherCatV1.20B785,2013-12-13 08:04:00,
2013-12-13 03:05:00,18.6,9.8,30.24,SSE,163,0.0,0.0,68,0.00,,,0.00,0,WeatherCatV1.20B785,2013-12-13 08:05:00,
2013-12-13 03:07:00,18.5,10.1,30.24,SSE,163,0.0,1.0,69,0.00,,,0.00,0,WeatherCatV1.20B785,2013-12-13 08:07:00,
2013-12-13 03:09:00,18.4,10.0,30.24,SSE,163,0.0,0.0,69,0.00,,,0.00,0,WeatherCatV1.20B785,2013-12-13 08:09:00,
2013-12-13 03:10:00,18.4,10.3,30.24,SSE,163,0.0,0.0,70,0.00,,,0.00,0,WeatherCatV1.20B785,2013-12-13 08:10:00,
2013-12-13 03:12:00,18.2,9.8,30.24,SSE,163,0.0,0.0,69,0.00,,,0.00,0,WeatherCatV1.20B785,2013-12-13 08:12:00,
2013-12-13 03:14:00,18.1,9.4,30.24,SSE,163,0.0,0.0,68,0.00,,,0.00,0,WeatherCatV1.20B785,2013-12-13 08:14:00,
2013-12-13 03:15:00,18.1,9.7,30.24,SSE,163,0.0,0.0,69,0.00,,,0.00,0,WeatherCatV1.20B785,2013-12-13 08:15:00,
2013-12-13 03:16:00,18.0,9.6,30.24,SSE,163,0.0,0.0,69,0.00,,,0.00,0,WeatherCatV1.20B785,2013-12-13 08:16:00,
2013-12-13 03:17:00,18.0,9.6,30.24,SSE,163,0.0,0.0,69,0.00,,,0.00,0,WeatherCatV1.20B785,2013-12-13 08:17:00,
2013-12-13 03:18:00,18.0,9.9,30.24,SSE,163,0.0,1.0,70,0.00,,,0.00,0,WeatherCatV1.20B785,2013-12-13 08:18:00,
2013-12-13 03:20:00,17.9,9.8,30.25,SSE,161,1.0,1.0,70,0.00,,,0.00,0,WeatherCatV1.20B785,2013-12-13 08:20:00,
2013-12-13 03:21:00,18.0,9.9,30.25,SSE,161,0.0,1.0,70,0.00,,,0.00,0,WeatherCatV1.20B785,2013-12-13 08:21:00,
2013-12-13 03:22:00,17.9,9.8,30.24,SSE,157,0.0,1.0,70,0.00,,,0.00,0,WeatherCatV1.20B785,2013-12-13 08:22:00,
2013-12-13 03:23:00,18.0,9.9,30.24,ESE,102,0.0,1.0,70,0.00,,,0.00,0,WeatherCatV1.20B785,2013-12-13 08:23:00,
2013-12-13 03:26:00,18.1,9.7,30.25,SE,131,0.0,3.0,69,0.00,,,0.00,0,WeatherCatV1.20B785,2013-12-13 08:26:00,
2013-12-13 03:27:00,18.2,9.8,30.24,SSE,152,2.0,2.0,69,0.00,,,0.00,0,WeatherCatV1.20B785,2013-12-13 08:27:00,
2013-12-13 03:29:00,18.4,10.3,30.25,SSE,158,1.0,3.0,70,0.00,,,0.00,0,WeatherCatV1.20B785,2013-12-13 08:29:00,
2013-12-13 03:31:00,18.3,9.9,30.24,SSE,162,1.0,2.0,69,0.00,,,0.00,0,WeatherCatV1.20B785,2013-12-13 08:31:00,
2013-12-13 03:32:00,18.3,9.9,30.25,SSE,157,0.0,1.0,69,0.00,,,0.00,0,WeatherCatV1.20B785,2013-12-13 08:32:00,
2013-12-13 03:33:00,18.3,9.9,30.25,SSE,153,1.0,1.0,69,0.00,,,0.00,0,WeatherCatV1.20B785,2013-12-13 08:33:00,
2013-12-13 03:36:00,18.1,9.4,30.24,SE,129,0.0,3.0,68,0.00,,,0.00,0,WeatherCatV1.20B785,2013-12-13 08:36:00,
2013-12-13 03:37:00,18.1,9.4,30.24,SE,129,0.0,3.0,68,0.00,,,0.00,0,WeatherCatV1.20B785,2013-12-13 08:37:00,
2013-12-13 03:38:00,18.1,9.4,30.24,SE,129,0.0,2.0,68,0.00,,,0.00,0,WeatherCatV1.20B785,2013-12-13 08:38:00,
2013-12-13 03:39:00,18.1,9.4,30.24,SE,131,2.0,2.0,68,0.00,,,0.00,0,WeatherCatV1.20B785,2013-12-13 08:39:00,
2013-12-13 03:43:00,18.3,9.5,30.25,SE,141,0.0,0.0,68,0.00,,,0.00,0,WeatherCatV1.20B785,2013-12-13 08:43:00,
2013-12-13 03:44:00,18.3,9.9,30.25,SE,141,0.0,0.0,69,0.00,,,0.00,0,WeatherCatV1.20B785,2013-12-13 08:44:00,
2013-12-13 03:45:00,18.3,9.9,30.25,SE,141,0.0,0.0,69,0.00,,,0.00,0,WeatherCatV1.20B785,2013-12-13 08:45:00,
2013-12-13 03:48:00,18.2,10.1,30.25,SE,144,0.0,1.0,70,0.00,,,0.00,0,WeatherCatV1.20B785,2013-12-13 08:48:00,
2013-12-13 03:49:00,18.2,9.8,30.25,SE,125,1.0,3.0,69,0.00,,,0.00,0,WeatherCatV1.20B785,2013-12-13 08:49:00,
2013-12-13 03:50:00,18.2,9.4,30.25,SE,125,1.0,3.0,68,0.00,,,0.00,0,WeatherCatV1.20B785,2013-12-13 08:50:00,
2013-12-13 03:53:00,18.4,9.6,30.25,WSW,238,1.0,1.0,68,0.00,,,0.00,0,WeatherCatV1.20B785,2013-12-13 08:53:00,
2013-12-13 03:54:00,18.4,9.6,30.25,WSW,238,0.0,1.0,68,0.00,,,0.00,0,WeatherCatV1.20B785,2013-12-13 08:54:00,
2013-12-13 03:55:00,18.5,9.4,30.25,WSW,238,0.0,0.0,67,0.00,,,0.00,0,WeatherCatV1.20B785,2013-12-13 08:55:00,
2013-12-13 03:56:00,18.5,9.4,30.25,SE,132,0.0,3.0,67,0.00,,,0.00,0,WeatherCatV1.20B785,2013-12-13 08:56:00,
2013-12-13 03:57:00,18.5,9.4,30.25,SE,132,0.0,3.0,67,0.00,,,0.00,0,WeatherCatV1.20B785,2013-12-13 08:57:00,
2013-12-13 03:59:00,18.9,9.4,30.24,SE,132,0.0,0.0,66,0.00,,,0.00,0,WeatherCatV1.20B785,2013-12-13 08:59:00,
2013-12-13 04:00:00,19.0,9.5,30.24,SE,129,0.0,1.0,66,0.00,,,0.00,0,WeatherCatV1.20B785,2013-12-13 09:00:00,
2013-12-13 04:01:00,19.1,9.6,30.24,SE,129,0.0,1.0,66,0.00,,,0.00,0,WeatherCatV1.20B785,2013-12-13 09:01:00,
2013-12-13 04:02:00,19.2,9.4,30.24,SE,129,0.0,0.0,65,0.00,,,0.00,0,WeatherCatV1.20B785,2013-12-13 09:02:00,
2013-12-13 04:04:00,19.5,9.7,30.25,South,177,0.0,3.0,65,0.00,,,0.00,0,WeatherCatV1.20B785,2013-12-13 09:04:00,
2013-12-13 04:05:00,19.6,9.8,30.25,South,177,0.0,0.0,65,0.00,,,0.00,0,WeatherCatV1.20B785,2013-12-13 09:05:00,
2013-12-13 04:06:00,19.6,9.8,30.25,South,177,0.0,0.0,65,0.00,,,0.00,0,WeatherCatV1.20B785,2013-12-13 09:06:00,
2013-12-13 04:07:00,19.7,9.9,30.25,South,177,0.0,0.0,65,0.00,,,0.00,0,WeatherCatV1.20B785,2013-12-13 09:07:00,
2013-12-13 04:08:00,19.7,9.5,30.25,South,173,0.0,1.0,64,0.00,,,0.00,0,WeatherCatV1.20B785,2013-12-13 09:08:00,
2013-12-13 04:10:00,19.9,9.7,30.24,SE,141,1.0,2.0,64,0.00,,,0.00,0,WeatherCatV1.20B785,2013-12-13 09:10:00,
2013-12-13 04:11:00,19.9,9.4,30.24,SE,141,0.0,2.0,63,0.00,,,0.00,0,WeatherCatV1.20B785,2013-12-13 09:11:00,
2013-12-13 04:12:00,20.1,9.9,30.24,South,183,1.0,2.0,64,0.00,,,0.00,0,WeatherCatV1.20B785,2013-12-13 09:12:00,
2013-12-13 04:13:00,20.2,10.0,30.24,SSE,149,2.0,2.0,64,0.00,,,0.00,0,WeatherCatV1.20B785,2013-12-13 09:13:00,
2013-12-13 04:15:00,20.3,9.8,30.25,SW,230,1.0,2.0,63,0.00,,,0.00,0,WeatherCatV1.20B785,2013-12-13 09:15:00,
2013-12-13 04:16:00,20.4,9.8,30.25,SW,233,0.0,1.0,63,0.00,,,0.00,0,WeatherCatV1.20B785,2013-12-13 09:16:00,
2013-12-13 04:17:00,20.4,10.2,30.25,SE,146,2.0,2.0,64,0.00,,,0.00,0,WeatherCatV1.20B785,2013-12-13 09:17:00,
2013-12-13 04:19:00,20.7,9.8,30.25,SSE,154,0.0,1.0,62,0.00,,,0.00,0,WeatherCatV1.20B785,2013-12-13 09:19:00,
2013-12-13 04:20:00,20.9,10.0,30.24,SSE,159,0.0,1.0,62,0.00,,,0.00,0,WeatherCatV1.20B785,2013-12-13 09:20:00,
2013-12-13 04:21:00,20.9,10.0,30.24,SSW,201,2.0,2.0,62,0.00,,,0.00,0,WeatherCatV1.20B785,2013-12-13 09:21:00,
2013-12-13 04:22:00,20.9,10.0,30.24,SW,235,1.0,2.0,62,0.00,,,0.00,0,WeatherCatV1.20B785,2013-12-13 09:22:00,
2013-12-13 04:23:00,21.0,10.1,30.25,SW,235,1.0,2.0,62,0.00,,,0.00,0,WeatherCatV1.20B785,2013-12-13 09:23:00,
2013-12-13 04:24:00,21.0,9.7,30.25,SE,143,0.0,1.0,61,0.00,,,0.00,0,WeatherCatV1.20B785,2013-12-13 09:24:00,
2013-12-13 04:26:00,21.3,9.6,30.24,SE,140,1.0,2.0,60,0.00,,,0.00,0,WeatherCatV1.20B785,2013-12-13 09:26:00,
2013-12-13 04:27:00,21.5,9.8,30.25,SE,140,0.0,0.0,60,0.00,,,0.00,0,WeatherCatV1.20B785,2013-12-13 09:27:00,
2013-12-13 04:28:00,21.6,9.9,30.25,SE,140,0.0,0.0,60,0.00,,,0.00,0,WeatherCatV1.20B785,2013-12-13 09:28:00,
2013-12-13 04:29:00,21.9,9.8,30.24,ESE,117,2.0,2.0,59,0.00,,,0.00,0,WeatherCatV1.20B785,2013-12-13 09:29:00,
2013-12-13 04:31:00,22.1,10.0,30.25,ESE,117,0.0,2.0,59,0.00,,,0.00,0,WeatherCatV1.20B785,2013-12-13 09:31:00,
2013-12-13 04:32:00,22.3,9.8,30.25,East,97,2.0,2.0,58,0.00,,,0.00,0,WeatherCatV1.20B785,2013-12-13 09:32:00,
2013-12-13 04:33:00,22.3,9.8,30.25,East,97,0.0,2.0,58,0.00,,,0.00,0,WeatherCatV1.20B785,2013-12-13 09:33:00,
2013-12-13 04:34:00,22.4,9.9,30.25,East,97,0.0,1.0,58,0.00,,,0.00,0,WeatherCatV1.20B785,2013-12-13 09:34:00,
2013-12-13 04:35:00,22.4,9.9,30.25,East,97,0.0,1.0,58,0.00,,,0.00,0,WeatherCatV1.20B785,2013-12-13 09:35:00,
2013-12-13 04:36:00,22.4,9.9,30.25,East,97,0.0,0.0,58,0.00,,,0.00,0,WeatherCatV1.20B785,2013-12-13 09:36:00,
2013-12-13 04:38:00,22.5,9.6,30.25,ESE,106,2.0,3.0,57,0.00,,,0.00,0,WeatherCatV1.20B785,2013-12-13 09:38:00,
2013-12-13 04:39:00,22.5,9.6,30.25,ESE,106,0.0,3.0,57,0.00,,,0.00,0,WeatherCatV1.20B785,2013-12-13 09:39:00,
2013-12-13 04:40:00,22.6,9.7,30.25,ESE,106,0.0,1.0,57,0.00,,,0.00,0,WeatherCatV1.20B785,2013-12-13 09:40:00,
2013-12-13 04:42:00,22.7,9.8,30.25,NNE,17,1.0,2.0,57,0.00,,,0.00,0,WeatherCatV1.20B785,2013-12-13 09:42:00,
2013-12-13 04:43:00,22.7,9.8,30.25,NNE,21,0.0,1.0,57,0.00,,,0.00,0,WeatherCatV1.20B785,2013-12-13 09:43:00,
2013-12-13 04:44:00,22.7,9.8,30.25,NNE,21,1.0,1.0,57,0.00,,,0.00,0,WeatherCatV1.20B785,2013-12-13 09:44:00,
2013-12-13 04:45:00,22.7,9.8,30.25,NNE,21,0.0,1.0,57,0.00,,,0.00,0,WeatherCatV1.20B785,2013-12-13 09:45:00,
2013-12-13 04:46:00,22.7,9.8,30.25,NNE,21,1.0,1.0,57,0.00,,,0.00,0,WeatherCatV1.20B785,2013-12-13 09:46:00,
2013-12-13 04:47:00,22.7,9.8,30.25,SE,127,1.0,2.0,57,0.00,,,0.00,0,WeatherCatV1.20B785,2013-12-13 09:47:00,
2013-12-13 04:49:00,22.8,9.5,30.25,NE,36,0.0,2.0,56,0.00,,,0.00,0,WeatherCatV1.20B785,2013-12-13 09:49:00,
2013-12-13 04:50:00,22.9,9.6,30.25,NE,36,0.0,0.0,56,0.00,,,0.00,0,WeatherCatV1.20B785,2013-12-13 09:50:00,
2013-12-13 04:51:00,22.9,9.6,30.25,ENE,60,1.0,1.0,56,0.00,,,0.00,0,WeatherCatV1.20B785,2013-12-13 09:51:00,
2013-12-13 04:52:00,23.0,9.7,30.25,ENE,60,0.0,1.0,56,0.00,,,0.00,0,WeatherCatV1.20B785,2013-12-13 09:52:00,
2013-12-13 04:54:00,23.1,9.4,30.25,WNW,293,0.0,3.0,55,0.00,,,0.00,0,WeatherCatV1.20B785,2013-12-13 09:54:00,
2013-12-13 04:56:00,23.1,9.8,30.25,SW,235,2.0,3.0,56,0.00,,,0.00,0,WeatherCatV1.20B785,2013-12-13 09:56:00,
2013-12-13 04:57:00,23.2,9.5,30.25,WNW,296,3.0,3.0,55,0.00,,,0.00,0,WeatherCatV1.20B785,2013-12-13 09:57:00,
2013-12-13 04:59:00,23.4,9.2,30.25,WSW,247,0.0,3.0,54,0.00,,,0.00,0,WeatherCatV1.20B785,2013-12-13 09:59:00,
2013-12-13 05:01:00,23.6,10.2,30.25,WSW,246,0.0,3.0,56,0.00,,,0.00,0,WeatherCatV1.20B785,2013-12-13 10:01:00,
2013-12-13 05:02:00,23.6,10.2,30.25,WSW,246,0.0,3.0,56,0.00,,,0.00,0,WeatherCatV1.20B785,2013-12-13 10:02:00,
2013-12-13 05:03:00,23.6,10.6,30.25,WSW,246,1.0,1.0,57,0.00,,,0.00,0,WeatherCatV1.20B785,2013-12-13 10:03:00,
2013-12-13 05:05:00,23.6,9.8,30.25,SSE,156,0.0,2.0,55,0.00,,,0.00,0,WeatherCatV1.20B785,2013-12-13 10:05:00,
2013-12-13 05:06:00,23.4,9.6,30.25,SE,133,2.0,2.0,55,0.00,,,0.00,0,WeatherCatV1.20B785,2013-12-13 10:06:00,
2013-12-13 05:07:00,23.4,10.1,30.25,SE,133,2.0,2.0,56,0.00,,,0.00,0,WeatherCatV1.20B785,2013-12-13 10:07:00,
2013-12-13 05:08:00,23.3,9.6,30.25,SE,133,0.0,2.0,55,0.00,,,0.00,0,WeatherCatV1.20B785,2013-12-13 10:08:00,
2013-12-13 05:09:00,23.1,9.4,30.25,ESE,121,2.0,2.0,55,0.00,,,0.00,0,WeatherCatV1.20B785,2013-12-13 10:09:00,
2013-12-13 05:11:00,23.1,9.4,30.25,ESE,116,1.0,2.0,55,0.00,,,0.00,0,WeatherCatV1.20B785,2013-12-13 10:11:00,
2013-12-13 05:12:00,23.1,9.8,30.26,ESE,114,0.0,2.0,56,0.00,,,0.00,0,WeatherCatV1.20B785,2013-12-13 10:12:00,
2013-12-13 05:13:00,23.0,9.7,30.26,ESE,114,1.0,2.0,56,0.00,,,0.00,0,WeatherCatV1.20B785,2013-12-13 10:13:00,
2013-12-13 05:14:00,23.0,9.3,30.26,East,86,3.0,3.0,55,0.00,,,0.00,0,WeatherCatV1.20B785,2013-12-13 10:14:00,
2013-12-13 05:16:00,23.1,9.4,30.26,East,88,0.0,2.0,55,0.00,,,0.00,0,WeatherCatV1.20B785,2013-12-13 10:16:00,
2013-12-13 05:17:00,23.1,9.8,30.26,East,88,1.0,1.0,56,0.00,,,0.00,0,WeatherCatV1.20B785,2013-12-13 10:17:00,
2013-12-13 05:18:00,23.2,9.9,30.26,East,89,2.0,2.0,56,0.00,,,0.00,0,WeatherCatV1.20B785,2013-12-13 10:18:00,
2013-12-13 05:19:00,23.1,9.8,30.26,East,89,0.0,1.0,56,0.00,,,0.00,0,WeatherCatV1.20B785,2013-12-13 10:19:00,
2013-12-13 05:20:00,23.0,9.3,30.26,East,81,2.0,3.0,55,0.00,,,0.00,0,WeatherCatV1.20B785,2013-12-13 10:20:00,
2013-12-13 05:21:00,23.0,9.3,30.26,East,83,0.0,3.0,55,0.00,,,0.00,0,WeatherCatV1.20B785,2013-12-13 10:21:00,
2013-12-13 05:22:00,23.1,9.4,30.26,East,83,0.0,2.0,55,0.00,,,0.00,0,WeatherCatV1.20B785,2013-12-13 10:22:00,
2013-12-13 05:23:00,23.1,9.4,30.26,East,83,0.0,1.0,55,0.00,,,0.00,0,WeatherCatV1.20B785,2013-12-13 10:23:00,
2013-12-13 05:24:00,23.1,9.4,30.26,East,83,1.0,2.0,55,0.00,,,0.00,0,WeatherCatV1.20B785,2013-12-13 10:24:00,
2013-12-13 05:25:00,23.1,9.4,30.26,ESE,112,3.0,3.0,55,0.00,,,0.00,0,WeatherCatV1.20B785,2013-12-13 10:25:00,
2013-12-13 05:26:00,23.1,9.4,30.26,ESE,113,1.0,3.0,55,0.00,,,0.00,0,WeatherCatV1.20B785,2013-12-13 10:26:00,
2013-12-13 05:27:00,23.2,9.5,30.26,ESE,113,1.0,1.0,55,0.00,,,0.00,0,WeatherCatV1.20B785,2013-12-13 10:27:00,
2013-12-13 05:29:00,23.2,9.5,30.26,ESE,106,1.0,3.0,55,0.00,,,0.00,0,WeatherCatV1.20B785,2013-12-13 10:29:00,
2013-12-13 05:30:00,23.2,9.5,30.26,ESE,106,0.0,3.0,55,0.00,,,0.00,0,WeatherCatV1.20B785,2013-12-13 10:30:00,
2013-12-13 05:31:00,23.3,10.4,30.26,ESE,106,0.0,0.0,57,0.00,,,0.00,0,WeatherCatV1.20B785,2013-12-13 10:31:00,
2013-12-13 05:32:00,23.3,10.4,30.26,ESE,106,0.0,0.0,57,0.00,,,0.00,0,WeatherCatV1.20B785,2013-12-13 10:32:00,
2013-12-13 05:33:00,23.2,9.9,30.26,ESE,106,0.0,0.0,56,0.00,,,0.00,0,WeatherCatV1.20B785,2013-12-13 10:33:00,
2013-12-13 05:34:00,23.2,9.5,30.26,ESE,106,1.0,1.0,55,0.00,,,0.00,0,WeatherCatV1.20B785,2013-12-13 10:34:00,
2013-12-13 05:36:00,23.2,9.9,30.26,ESE,106,0.0,0.0,56,0.00,,,0.00,0,WeatherCatV1.20B785,2013-12-13 10:36:00,
2013-12-13 05:37:00,23.2,9.9,30.26,ESE,106,0.0,0.0,56,0.00,,,0.00,0,WeatherCatV1.20B785,2013-12-13 10:37:00,
2013-12-13 05:38:00,23.2,9.5,30.26,ESE,106,0.0,1.0,55,0.00,,,0.00,0,WeatherCatV1.20B785,2013-12-13 10:38:00,
2013-12-13 05:39:00,23.2,9.5,30.26,ESE,106,0.0,1.0,55,0.00,,,0.00,0,WeatherCatV1.20B785,2013-12-13 10:39:00,
2013-12-13 05:40:00,23.2,9.5,30.26,ESE,106,0.0,0.0,55,0.00,,,0.00,0,WeatherCatV1.20B785,2013-12-13 10:40:00,
2013-12-13 05:42:00,23.1,9.8,30.26,ESE,106,0.0,0.0,56,0.00,,,0.00,0,WeatherCatV1.20B785,2013-12-13 10:42:00,
2013-12-13 05:43:00,23.1,9.4,30.26,ESE,106,1.0,1.0,55,0.00,,,0.00,0,WeatherCatV1.20B785,2013-12-13 10:43:00,
2013-12-13 05:44:00,23.1,9.4,30.26,ESE,115,2.0,3.0,55,0.00,,,0.00,0,WeatherCatV1.20B785,2013-12-13 10:44:00,
2013-12-13 05:45:00,23.0,9.3,30.26,ESE,115,1.0,3.0,55,0.00,,,0.00,0,WeatherCatV1.20B785,2013-12-13 10:45:00,
2013-12-13 05:47:00,22.9,9.6,30.26,ESE,115,0.0,1.0,56,0.00,,,0.00,0,WeatherCatV1.20B785,2013-12-13 10:47:00,
2013-12-13 05:48:00,22.8,9.5,30.26,ESE,115,0.0,0.0,56,0.00,,,0.00,0,WeatherCatV1.20B785,2013-12-13 10:48:00,
2013-12-13 05:49:00,22.7,9.4,30.26,ESE,115,0.0,0.0,56,0.00,,,0.00,0,WeatherCatV1.20B785,2013-12-13 10:49:00,
2013-12-13 05:52:00,22.6,9.3,30.26,ESE,115,0.0,0.0,56,0.00,,,0.00,0,WeatherCatV1.20B785,2013-12-13 10:52:00,
2013-12-13 05:53:00,22.6,9.3,30.26,ESE,115,0.0,0.0,56,0.00,,,0.00,0,WeatherCatV1.20B785,2013-12-13 10:53:00,
2013-12-13 05:54:00,22.6,9.3,30.26,ESE,115,0.0,0.0,56,0.00,,,0.00,0,WeatherCatV1.20B785,2013-12-13 10:54:00,
2013-12-13 05:58:00,22.3,9.4,30.26,ESE,115,1.0,1.0,57,0.00,,,0.00,0,WeatherCatV1.20B785,2013-12-13 10:58:00,
2013-12-13 05:59:00,22.2,9.3,30.26,ESE,115,1.0,2.0,57,0.00,,,0.00,0,WeatherCatV1.20B785,2013-12-13 10:59:00,
2013-12-13 06:00:00,22.2,9.3,30.26,ESE,115,0.0,2.0,57,0.00,,,0.00,0,WeatherCatV1.20B785,2013-12-13 11:00:00,
2013-12-13 06:03:00,22.0,9.1,30.26,ESE,115,2.0,2.0,57,0.00,,,0.00,0,WeatherCatV1.20B785,2013-12-13 11:03:00,
2013-12-13 06:04:00,22.0,9.1,30.26,ESE,115,1.0,2.0,57,0.00,,,0.00,0,WeatherCatV1.20B785,2013-12-13 11:04:00,
2013-12-13 06:05:00,22.0,9.1,30.26,ESE,115,2.0,2.0,57,0.00,,,0.00,0,WeatherCatV1.20B785,2013-12-13 11:05:00,
2013-12-13 06:09:00,21.7,9.2,30.27,ESE,115,0.0,0.0,58,0.00,,,0.00,0,WeatherCatV1.20B785,2013-12-13 11:09:00,
2013-12-13 06:10:00,21.6,9.1,30.27,ESE,115,0.0,0.0,58,0.00,,,0.00,0,WeatherCatV1.20B785,2013-12-13 11:10:00,
2013-12-13 06:11:00,21.6,9.1,30.27,ESE,115,2.0,2.0,58,0.00,,,0.00,0,WeatherCatV1.20B785,2013-12-13 11:11:00,
2013-12-13 06:14:00,21.5,9.4,30.27,ESE,115,0.0,0.0,59,0.00,,,0.00,0,WeatherCatV1.20B785,2013-12-13 11:14:00,
2013-12-13 06:15:00,21.5,9.0,30.27,ESE,115,0.0,0.0,58,0.00,,,0.00,0,WeatherCatV1.20B785,2013-12-13 11:15:00,
2013-12-13 06:16:00,21.4,8.9,30.27,ESE,115,0.0,0.0,58,0.00,,,0.00,0,WeatherCatV1.20B785,2013-12-13 11:16:00,
2013-12-13 06:20:00,21.1,9.0,30.27,WNW,285,0.0,2.0,59,0.00,,,0.00,0,WeatherCatV1.20B785,2013-12-13 11:20:00,
2013-12-13 06:21:00,21.0,8.9,30.27,WNW,285,0.0,0.0,59,0.00,,,0.00,0,WeatherCatV1.20B785,2013-12-13 11:21:00,
2013-12-13 06:23:00,20.8,8.8,30.27,WNW,289,0.0,0.0,59,0.00,,,0.00,0,WeatherCatV1.20B785,2013-12-13 11:23:00,
2013-12-13 06:25:00,20.8,8.8,30.27,WNW,289,0.0,0.0,59,0.00,,,0.00,0,WeatherCatV1.20B785,2013-12-13 11:25:00,
2013-12-13 06:26:00,20.7,8.7,30.27,WNW,289,0.0,0.0,59,0.00,,,0.00,0,WeatherCatV1.20B785,2013-12-13 11:26:00,
2013-12-13 06:27:00,20.7,9.0,30.27,WNW,289,0.0,0.0,60,0.00,,,0.00,0,WeatherCatV1.20B785,2013-12-13 11:27:00,
2013-12-13 06:29:00,20.5,8.9,30.27,WNW,289,0.0,0.0,60,0.00,,,0.00,0,WeatherCatV1.20B785,2013-12-13 11:29:00,
2013-12-13 06:30:00,20.5,8.5,30.27,WNW,289,0.0,0.0,59,0.00,,,0.00,0,WeatherCatV1.20B785,2013-12-13 11:30:00,
2013-12-13 06:31:00,20.4,8.8,30.27,WNW,289,0.0,1.0,60,0.00,,,0.00,0,WeatherCatV1.20B785,2013-12-13 11:31:00,
2013-12-13 06:32:00,20.4,8.8,30.27,WNW,289,0.0,0.0,60,0.00,,,0.00,0,WeatherCatV1.20B785,2013-12-13 11:32:00,
2013-12-13 06:34:00,20.3,8.7,30.27,WNW,289,0.0,0.0,60,0.00,,,0.00,0,WeatherCatV1.20B785,2013-12-13 11:34:00,
2013-12-13 06:35:00,20.3,8.7,30.27,WNW,289,0.0,0.0,60,0.00,,,0.00,0,WeatherCatV1.20B785,2013-12-13 11:35:00,
2013-12-13 06:36:00,20.2,8.6,30.27,WNW,289,1.0,2.0,60,0.00,,,0.00,0,WeatherCatV1.20B785,2013-12-13 11:36:00,
2013-12-13 06:37:00,20.2,8.9,30.27,WNW,289,1.0,2.0,61,0.00,,,0.00,0,WeatherCatV1.20B785,2013-12-13 11:37:00,
2013-12-13 06:40:00,20.0,8.7,30.27,WNW,289,0.0,0.0,61,0.00,,,0.00,0,WeatherCatV1.20B785,2013-12-13 11:40:00,
2013-12-13 06:41:00,19.9,8.3,30.27,WNW,289,0.0,0.0,60,0.00,,,0.00,0,WeatherCatV1.20B785,2013-12-13 11:41:00,
2013-12-13 06:42:00,20.0,8.4,30.27,WNW,289,0.0,0.0,60,0.00,,,0.00,0,WeatherCatV1.20B785,2013-12-13 11:42:00,
2013-12-13 06:43:00,19.9,8.6,30.27,WNW,289,0.0,0.0,61,0.00,,,0.00,0,WeatherCatV1.20B785,2013-12-13 11:43:00,
2013-12-13 06:45:00,19.8,8.6,30.27,WNW,289,1.0,1.0,61,0.00,,,0.00,0,WeatherCatV1.20B785,2013-12-13 11:45:00,
2013-12-13 06:47:00,19.8,8.6,30.27,WNW,289,0.0,1.0,61,0.00,,,0.00,0,WeatherCatV1.20B785,2013-12-13 11:47:00,
2013-12-13 06:48:00,19.8,8.6,30.27,WNW,289,0.0,0.0,61,0.00,,,0.00,0,WeatherCatV1.20B785,2013-12-13 11:48:00,
2013-12-13 06:50:00,19.6,8.4,30.27,WNW,289,0.0,1.0,61,0.00,,,0.00,0,WeatherCatV1.20B785,2013-12-13 11:50:00,
2013-12-13 06:52:00,19.6,8.4,30.27,WNW,289,0.0,0.0,61,0.00,,,0.00,0,WeatherCatV1.20B785,2013-12-13 11:52:00,
2013-12-13 06:53:00,19.5,8.3,30.27,WNW,289,0.0,0.0,61,0.00,,,0.00,0,WeatherCatV1.20B785,2013-12-13 11:53:00,
2013-12-13 06:56:00,19.5,8.3,30.27,WNW,289,0.0,0.0,61,0.00,,,0.00,0,WeatherCatV1.20B785,2013-12-13 11:56:00,
2013-12-13 06:57:00,19.4,8.5,30.28,WNW,289,1.0,1.0,62,0.00,,,0.00,0,WeatherCatV1.20B785,2013-12-13 11:57:00,
2013-12-13 06:59:00,19.3,8.4,30.28,WNW,289,0.0,2.0,62,0.00,,,0.00,0,WeatherCatV1.20B785,2013-12-13 11:59:00,
2013-12-13 07:01:00,19.3,8.4,30.27,WNW,289,0.0,0.0,62,0.00,,,0.00,0,WeatherCatV1.20B785,2013-12-13 12:01:00,
2013-12-13 07:02:00,19.4,8.5,30.27,WNW,289,0.0,0.0,62,0.00,,,0.00,0,WeatherCatV1.20B785,2013-12-13 12:02:00,
2013-12-13 07:03:00,19.4,8.5,30.27,WNW,289,0.0,0.0,62,0.00,,,0.00,0,WeatherCatV1.20B785,2013-12-13 12:03:00,
2013-12-13 07:04:00,19.4,8.5,30.28,WNW,289,0.0,1.0,62,0.00,,,0.00,0,WeatherCatV1.20B785,2013-12-13 12:04:00,
2013-12-13 07:06:00,19.4,8.5,30.28,WNW,289,0.0,0.0,62,0.00,,,0.00,0,WeatherCatV1.20B785,2013-12-13 12:06:00,
2013-12-13 07:07:00,19.4,8.5,30.28,WNW,290,1.0,3.0,62,0.00,,,0.00,0,WeatherCatV1.20B785,2013-12-13 12:07:00,
2013-12-13 07:08:00,19.4,8.5,30.28,WNW,290,0.0,3.0,62,0.00,,,0.00,0,WeatherCatV1.20B785,2013-12-13 12:08:00,
2013-12-13 07:09:00,19.4,8.5,30.28,WNW,290,0.0,0.0,62,0.00,,,0.00,0,WeatherCatV1.20B785,2013-12-13 12:09:00,
2013-12-13 07:12:00,19.6,9.1,30.29,WNW,290,0.0,0.0,63,0.00,,,0.00,0,WeatherCatV1.20B785,2013-12-13 12:12:00,
2013-12-13 07:13:00,19.6,9.1,30.29,WNW,290,0.0,0.0,63,0.00,,,0.00,0,WeatherCatV1.20B785,2013-12-13 12:13:00,
2013-12-13 07:14:00,19.7,8.8,30.29,WNW,290,1.0,1.0,62,0.00,,,0.00,0,WeatherCatV1.20B785,2013-12-13 12:14:00,
2013-12-13 07:17:00,19.6,9.8,30.28,SSE,150,0.0,2.0,65,0.00,,,0.00,0,WeatherCatV1.20B785,2013-12-13 12:17:00,
2013-12-13 07:18:00,19.6,9.8,30.28,SSE,150,0.0,2.0,65,0.00,,,0.00,0,WeatherCatV1.20B785,2013-12-13 12:18:00,
2013-12-13 07:19:00,19.5,9.7,30.28,NW,310,1.0,2.0,65,0.00,,,0.00,0,WeatherCatV1.20B785,2013-12-13 12:19:00,
2013-12-13 07:20:00,19.4,9.6,30.28,NW,310,2.0,2.0,65,0.00,,,0.00,0,WeatherCatV1.20B785,2013-12-13 12:20:00,
2013-12-13 07:23:00,19.4,8.5,30.28,NW,310,0.0,0.0,62,0.00,,,0.00,5,WeatherCatV1.20B785,2013-12-13 12:23:00,
2013-12-13 07:26:00,19.6,8.7,30.29,NW,310,1.0,1.0,62,0.00,,,0.00,5,WeatherCatV1.20B785,2013-12-13 12:26:00,
2013-12-13 07:28:00,20.0,8.7,30.28,SE,135,1.0,3.0,61,0.00,,,0.00,7,WeatherCatV1.20B785,2013-12-13 12:28:00,
2013-12-13 07:29:00,20.2,9.6,30.29,SW,218,1.0,2.0,63,0.00,,,0.00,7,WeatherCatV1.20B785,2013-12-13 12:29:00,
2013-12-13 07:31:00,20.2,9.6,30.28,West,275,1.0,2.0,63,0.00,,,0.00,7,WeatherCatV1.20B785,2013-12-13 12:31:00,
2013-12-13 07:32:00,20.1,9.2,30.29,West,275,1.0,2.0,62,0.00,,,0.00,7,WeatherCatV1.20B785,2013-12-13 12:32:00,
2013-12-13 07:33:00,20.0,9.1,30.29,West,275,1.0,2.0,62,0.00,,,0.00,9,WeatherCatV1.20B785,2013-12-13 12:33:00,
2013-12-13 07:34:00,20.0,9.1,30.29,West,275,0.0,1.0,62,0.00,,,0.00,9,WeatherCatV1.20B785,2013-12-13 12:34:00,
2013-12-13 07:37:00,19.9,8.6,30.29,West,275,0.0,1.0,61,0.00,,,0.00,11,WeatherCatV1.20B785,2013-12-13 12:37:00,
2013-12-13 07:38:00,20.0,8.7,30.29,South,183,1.0,1.0,61,0.00,,,0.00,11,WeatherCatV1.20B785,2013-12-13 12:38:00,
2013-12-13 07:40:00,20.0,9.1,30.29,West,281,3.0,3.0,62,0.00,,,0.00,12,WeatherCatV1.20B785,2013-12-13 12:40:00,
2013-12-13 07:42:00,19.9,9.4,30.29,WNW,282,1.0,2.0,63,0.00,,,0.00,12,WeatherCatV1.20B785,2013-12-13 12:42:00,
2013-12-13 07:43:00,19.7,9.2,30.29,West,281,0.0,1.0,63,0.00,,,0.00,12,WeatherCatV1.20B785,2013-12-13 12:43:00,
2013-12-13 07:44:00,19.7,9.2,30.29,ESE,116,1.0,2.0,63,0.00,,,0.00,14,WeatherCatV1.20B785,2013-12-13 12:44:00,
2013-12-13 07:45:00,19.5,9.3,30.29,West,266,2.0,2.0,64,0.00,,,0.00,14,WeatherCatV1.20B785,2013-12-13 12:45:00,
2013-12-13 07:47:00,19.4,9.6,30.29,SW,231,0.0,0.0,65,0.00,,,0.00,14,WeatherCatV1.20B785,2013-12-13 12:47:00,
2013-12-13 07:48:00,19.4,9.2,30.29,SE,134,2.0,3.0,64,0.00,,,0.00,14,WeatherCatV1.20B785,2013-12-13 12:48:00,
2013-12-13 07:50:00,19.6,9.1,30.29,SE,140,0.0,1.0,63,0.00,,,0.00,16,WeatherCatV1.20B785,2013-12-13 12:50:00,
2013-12-13 07:51:00,19.8,9.6,30.29,SSE,151,0.0,1.0,64,0.00,,,0.00,16,WeatherCatV1.20B785,2013-12-13 12:51:00,
2013-12-13 07:52:00,19.8,10.0,30.29,SSE,151,0.0,0.0,65,0.00,,,0.00,16,WeatherCatV1.20B785,2013-12-13 12:52:00,
2013-12-13 07:53:00,19.8,10.0,30.29,SSE,151,0.0,0.0,65,0.00,,,0.00,18,WeatherCatV1.20B785,2013-12-13 12:53:00,
2013-12-13 07:54:00,19.8,10.0,30.29,South,181,0.0,1.0,65,0.00,,,0.00,19,WeatherCatV1.20B785,2013-12-13 12:54:00,
2013-12-13 07:56:00,19.9,9.7,30.28,SSE,150,1.0,1.0,64,0.00,,,0.00,25,WeatherCatV1.20B785,2013-12-13 12:56:00,
2013-12-13 07:57:00,20.0,9.8,30.29,WSW,257,0.0,2.0,64,0.00,,,0.00,26,WeatherCatV1.20B785,2013-12-13 12:57:00,
2013-12-13 07:58:00,20.0,10.5,30.29,WSW,257,0.0,2.0,66,0.00,,,0.00,30,WeatherCatV1.20B785,2013-12-13 12:58:00,
2013-12-13 07:59:00,20.0,10.8,30.28,SE,130,1.0,1.0,67,0.00,,,0.00,32,WeatherCatV1.20B785,2013-12-13 12:59:00,
2013-12-13 08:01:00,20.0,10.5,30.28,West,280,3.0,3.0,66,0.00,,,0.00,35,WeatherCatV1.20B785,2013-12-13 13:01:00,
2013-12-13 08:02:00,19.9,10.7,30.28,West,279,0.0,3.0,67,0.00,,,0.00,33,WeatherCatV1.20B785,2013-12-13 13:02:00,
2013-12-13 08:03:00,19.9,10.7,30.28,West,279,0.0,3.0,67,0.00,,,0.00,33,WeatherCatV1.20B785,2013-12-13 13:03:00,
2013-12-13 08:05:00,19.8,10.6,30.29,West,279,0.0,0.0,67,0.00,,,0.00,32,WeatherCatV1.20B785,2013-12-13 13:05:00,
2013-12-13 08:08:00,19.8,10.3,30.29,West,279,0.0,0.0,66,0.00,,,0.00,40,WeatherCatV1.20B785,2013-12-13 13:08:00,
2013-12-13 08:09:00,19.9,10.1,30.29,West,279,0.0,0.0,65,0.00,,,0.00,42,WeatherCatV1.20B785,2013-12-13 13:09:00,
2013-12-13 08:10:00,20.0,9.8,30.28,SE,130,2.0,2.0,64,0.00,,,0.00,40,WeatherCatV1.20B785,2013-12-13 13:10:00,
2013-12-13 08:13:00,20.6,10.7,30.29,West,269,1.0,4.0,65,0.00,,,0.00,46,WeatherCatV1.20B785,2013-12-13 13:13:00,
2013-12-13 08:14:00,20.7,11.2,30.29,South,179,0.0,2.0,66,0.00,,,0.00,56,WeatherCatV1.20B785,2013-12-13 13:14:00,
2013-12-13 08:16:00,21.0,11.1,30.29,SSE,165,0.0,3.0,65,0.00,,,0.00,44,WeatherCatV1.20B785,2013-12-13 13:16:00,
2013-12-13 08:18:00,21.2,11.6,30.29,West,273,1.0,2.0,66,0.00,,,0.00,81,WeatherCatV1.20B785,2013-12-13 13:18:00,
2013-12-13 08:19:00,21.3,11.7,30.29,West,273,1.0,2.0,66,0.00,,,0.00,60,WeatherCatV1.20B785,2013-12-13 13:19:00,
2013-12-13 08:20:00,21.4,11.5,30.29,West,273,0.0,1.0,65,0.00,,,0.00,33,WeatherCatV1.20B785,2013-12-13 13:20:00,
2013-12-13 08:21:00,21.5,11.2,30.29,West,273,0.0,0.0,64,0.00,,,0.00,51,WeatherCatV1.20B785,2013-12-13 13:21:00,
2013-12-13 08:22:00,21.7,11.4,30.29,West,273,1.0,1.0,64,0.00,,,0.00,63,WeatherCatV1.20B785,2013-12-13 13:22:00,
2013-12-13 08:23:00,21.8,11.2,30.29,West,273,0.0,2.0,63,0.00,,,0.00,51,WeatherCatV1.20B785,2013-12-13 13:23:00,
2013-12-13 08:24:00,21.9,10.9,30.29,West,273,2.0,2.0,62,0.00,,,0.00,32,WeatherCatV1.20B785,2013-12-13 13:24:00,
2013-12-13 08:25:00,22.0,11.0,30.29,West,273,0.0,2.0,62,0.00,,,0.00,32,WeatherCatV1.20B785,2013-12-13 13:25:00,
2013-12-13 08:27:00,22.3,10.9,30.29,West,273,0.0,1.0,61,0.00,,,0.00,56,WeatherCatV1.20B785,2013-12-13 13:27:00,
2013-12-13 08:28:00,22.4,10.6,30.29,West,273,0.0,0.0,60,0.00,,,0.00,83,WeatherCatV1.20B785,2013-12-13 13:28:00,
2013-12-13 08:29:00,22.5,11.1,30.29,West,273,0.0,0.0,61,0.00,,,0.00,46,WeatherCatV1.20B785,2013-12-13 13:29:00,
2013-12-13 08:30:00,22.7,11.3,30.29,West,273,0.0,0.0,61,0.00,,,0.00,30,WeatherCatV1.20B785,2013-12-13 13:30:00,
2013-12-13 08:32:00,22.9,11.5,30.29,SSE,149,0.0,2.0,61,0.00,,,0.00,32,WeatherCatV1.20B785,2013-12-13 13:32:00,
2013-12-13 08:33:00,23.0,11.2,30.29,SSE,158,0.0,2.0,60,0.00,,,0.00,37,WeatherCatV1.20B785,2013-12-13 13:33:00,
2013-12-13 08:34:00,23.1,11.3,30.29,SSE,158,0.0,2.0,60,0.00,,,0.00,53,WeatherCatV1.20B785,2013-12-13 13:34:00,
2013-12-13 08:36:00,23.4,11.6,30.29,West,279,1.0,2.0,60,0.00,,,0.00,84,WeatherCatV1.20B785,2013-12-13 13:36:00,
2013-12-13 08:38:00,23.7,11.9,30.29,West,279,1.0,2.0,60,0.00,,,0.00,109,WeatherCatV1.20B785,2013-12-13 13:38:00,
2013-12-13 08:39:00,23.8,11.6,30.29,West,279,0.0,2.0,59,0.00,,,0.00,109,WeatherCatV1.20B785,2013-12-13 13:39:00,
2013-12-13 08:41:00,24.1,12.2,30.29,West,279,0.0,2.0,60,0.00,,,0.00,155,WeatherCatV1.20B785,2013-12-13 13:41:00,
2013-12-13 08:43:00,24.4,12.2,30.29,West,279,1.0,2.0,59,0.00,,,0.00,167,WeatherCatV1.20B785,2013-12-13 13:43:00,
2013-12-13 08:44:00,24.6,12.3,30.30,West,279,0.0,2.0,59,0.00,,,0.00,169,WeatherCatV1.20B785,2013-12-13 13:44:00,
2013-12-13 08:45:00,24.6,12.3,30.30,SE,135,2.0,2.0,59,0.00,,,0.00,169,WeatherCatV1.20B785,2013-12-13 13:45:00,
2013-12-13 08:47:00,25.3,11.8,30.30,SE,140,2.0,7.0,56,0.00,,,0.00,171,WeatherCatV1.20B785,2013-12-13 13:47:00,
2013-12-13 08:49:00,25.7,11.8,30.29,SSE,164,2.0,7.0,55,0.00,,,0.00,158,WeatherCatV1.20B785,2013-12-13 13:49:00,
2013-12-13 08:50:00,26.0,12.1,30.30,SE,144,2.0,4.0,55,0.00,,,0.00,174,WeatherCatV1.20B785,2013-12-13 13:50:00,
2013-12-13 08:52:00,26.7,11.5,30.29,ESE,123,3.0,5.0,52,0.00,,,0.00,193,WeatherCatV1.20B785,2013-12-13 13:52:00,
2013-12-13 08:54:00,27.0,11.8,30.29,SE,135,4.0,5.0,52,0.00,,,0.00,162,WeatherCatV1.20B785,2013-12-13 13:54:00,
2013-12-13 08:55:00,27.1,11.8,30.29,SE,137,5.0,5.0,52,0.00,,,0.00,169,WeatherCatV1.20B785,2013-12-13 13:55:00,
2013-12-13 08:58:00,27.5,12.6,30.30,SE,146,0.0,3.0,53,0.00,,,0.00,209,WeatherCatV1.20B785,2013-12-13 13:58:00,
2013-12-13 08:59:00,27.7,12.4,30.30,WSW,255,2.0,2.0,52,0.00,,,0.00,155,WeatherCatV1.20B785,2013-12-13 13:59:00,
2013-12-13 09:00:00,27.8,12.5,30.30,WSW,256,0.0,2.0,52,0.00,,,0.00,144,WeatherCatV1.20B785,2013-12-13 14:00:00,
2013-12-13 09:01:00,27.9,13.0,30.30,East,94,1.0,2.0,53,0.00,,,0.00,137,WeatherCatV1.20B785,2013-12-13 14:01:00,
2013-12-13 09:02:00,27.9,13.0,30.30,South,183,3.0,5.0,53,0.00,,,0.00,111,WeatherCatV1.20B785,2013-12-13 14:02:00,
2013-12-13 09:03:00,28.1,12.3,30.30,SE,142,0.0,5.0,51,0.00,,,0.00,93,WeatherCatV1.20B785,2013-12-13 14:03:00,
2013-12-13 09:04:00,28.2,12.9,30.30,SE,126,2.0,2.0,52,0.00,,,0.00,97,WeatherCatV1.20B785,2013-12-13 14:04:00,
2013-12-13 09:05:00,28.3,12.9,30.30,SSE,160,2.0,3.0,52,0.00,,,0.00,102,WeatherCatV1.20B785,2013-12-13 14:05:00,
2013-12-13 09:06:00,28.4,13.5,30.30,SSE,156,0.0,3.0,53,0.00,,,0.00,121,WeatherCatV1.20B785,2013-12-13 14:06:00,
2013-12-13 09:09:00,28.7,13.3,30.30,SE,140,1.0,3.0,52,0.00,,,0.00,179,WeatherCatV1.20B785,2013-12-13 14:09:00,
2013-12-13 09:10:00,28.8,13.0,30.30,West,271,0.0,3.0,51,0.00,,,0.00,169,WeatherCatV1.20B785,2013-12-13 14:10:00,
2013-12-13 09:11:00,28.9,12.6,30.30,South,182,1.0,3.0,50,0.00,,,0.00,188,WeatherCatV1.20B785,2013-12-13 14:11:00,
2013-12-13 09:12:00,29.0,12.7,30.30,South,182,0.0,2.0,50,0.00,,,0.00,200,WeatherCatV1.20B785,2013-12-13 14:12:00,
2013-12-13 09:14:00,29.2,13.4,30.30,SE,142,4.0,6.0,51,0.00,,,0.00,232,WeatherCatV1.20B785,2013-12-13 14:14:00,
2013-12-13 09:15:00,29.4,14.0,30.30,SSE,160,0.0,6.0,52,0.00,,,0.00,160,WeatherCatV1.20B785,2013-12-13 14:15:00,
2013-12-13 09:16:00,29.4,14.0,30.30,SSE,161,0.0,1.0,52,0.00,,,0.00,160,WeatherCatV1.20B785,2013-12-13 14:16:00,
2013-12-13 09:18:00,29.6,13.3,30.30,WNW,283,0.0,0.0,50,0.00,,,0.00,232,WeatherCatV1.20B785,2013-12-13 14:18:00,
2013-12-13 09:19:00,29.7,13.4,30.30,WNW,283,0.0,1.0,50,0.00,,,0.00,239,WeatherCatV1.20B785,2013-12-13 14:19:00,
2013-12-13 09:20:00,29.9,13.6,30.30,WNW,283,0.0,1.0,50,0.00,,,0.00,213,WeatherCatV1.20B785,2013-12-13 14:20:00,
2013-12-13 09:21:00,30.0,13.6,30.30,SE,131,2.0,3.0,50,0.00,,,0.00,160,WeatherCatV1.20B785,2013-12-13 14:21:00,
2013-12-13 09:23:00,30.2,12.9,30.30,SW,214,0.0,3.0,48,0.00,,,0.00,125,WeatherCatV1.20B785,2013-12-13 14:23:00,
2013-12-13 09:24:00,30.3,13.5,30.30,West,260,0.0,3.0,49,0.00,,,0.00,146,WeatherCatV1.20B785,2013-12-13 14:24:00,
2013-12-13 09:25:00,30.5,13.6,30.30,WSW,256,2.0,5.0,49,0.00,,,0.00,211,WeatherCatV1.20B785,2013-12-13 14:25:00,
2013-12-13 09:27:00,30.7,13.8,30.30,SE,143,3.0,3.0,49,0.00,,,0.00,239,WeatherCatV1.20B785,2013-12-13 14:27:00,
2013-12-13 09:28:00,30.8,13.4,30.30,WSW,237,0.0,3.0,48,0.00,,,0.00,257,WeatherCatV1.20B785,2013-12-13 14:28:00,
2013-12-13 09:29:00,31.0,13.6,30.30,ESE,113,1.0,1.0,48,0.00,,,0.00,278,WeatherCatV1.20B785,2013-12-13 14:29:00,
2013-12-13 09:31:00,31.1,13.2,30.30,WSW,250,0.0,1.0,47,0.00,,,0.00,278,WeatherCatV1.20B785,2013-12-13 14:31:00,
2013-12-13 09:32:00,31.2,13.8,30.30,SE,137,2.0,3.0,48,0.00,,,0.00,294,WeatherCatV1.20B785,2013-12-13 14:32:00,
2013-12-13 09:33:00,31.4,14.9,30.30,SSE,156,0.0,3.0,50,0.00,,,0.00,253,WeatherCatV1.20B785,2013-12-13 14:33:00,
2013-12-13 09:34:00,31.5,15.5,30.30,SE,127,2.0,4.0,51,0.00,,,0.00,292,WeatherCatV1.20B785,2013-12-13 14:34:00,
2013-12-13 09:35:00,31.5,15.0,30.30,South,171,1.0,4.0,50,0.00,,,0.00,309,WeatherCatV1.20B785,2013-12-13 14:35:00,
2013-12-13 09:36:00,31.5,15.0,30.30,SSE,160,1.0,4.0,50,0.00,,,0.00,309,WeatherCatV1.20B785,2013-12-13 14:36:00,
2013-12-13 09:37:00,31.6,14.7,30.30,SW,223,0.0,3.0,49,0.00,,,0.00,311,WeatherCatV1.20B785,2013-12-13 14:37:00,
2013-12-13 09:38:00,31.7,14.8,30.30,SW,223,1.0,1.0,49,0.00,,,0.00,294,WeatherCatV1.20B785,2013-12-13 14:38:00,
2013-12-13 09:40:00,31.9,14.9,30.30,SE,140,3.0,4.0,49,0.00,,,0.00,272,WeatherCatV1.20B785,2013-12-13 14:40:00,
2013-12-13 09:41:00,32.0,15.9,30.30,SSE,167,2.0,4.0,51,0.00,,,0.00,281,WeatherCatV1.20B785,2013-12-13 14:41:00,
2013-12-13 09:42:00,32.1,16.5,30.30,West,268,1.0,3.0,52,0.00,,,0.00,318,WeatherCatV1.20B785,2013-12-13 14:42:00,
2013-12-13 09:43:00,32.1,16.0,30.30,SW,231,1.0,3.0,51,0.00,,,0.00,318,WeatherCatV1.20B785,2013-12-13 14:43:00,
2013-12-13 09:46:00,32.5,15.0,30.30,South,181,1.0,5.0,48,0.00,,,0.00,329,WeatherCatV1.20B785,2013-12-13 14:46:00,
2013-12-13 09:47:00,32.6,16.0,30.30,WSW,242,0.0,2.0,50,0.00,,,0.00,329,WeatherCatV1.20B785,2013-12-13 14:47:00,
2013-12-13 09:48:00,32.7,14.7,30.30,SW,231,0.0,1.0,47,0.00,,,0.00,309,WeatherCatV1.20B785,2013-12-13 14:48:00,
2013-12-13 09:49:00,33.0,15.5,30.30,WSW,245,3.0,7.0,48,0.00,,,0.00,301,WeatherCatV1.20B785,2013-12-13 14:49:00,
2013-12-13 09:51:00,33.1,13.1,30.30,SE,138,1.0,3.0,43,0.00,,,0.00,271,WeatherCatV1.20B785,2013-12-13 14:51:00,
2013-12-13 09:52:00,33.1,14.1,30.30,SSW,205,2.0,3.0,45,0.00,,,0.00,264,WeatherCatV1.20B785,2013-12-13 14:52:00,
2013-12-13 09:53:00,33.2,15.2,30.30,SSW,204,0.0,3.0,47,0.00,,,0.00,294,WeatherCatV1.20B785,2013-12-13 14:53:00,
2013-12-13 09:54:00,33.2,14.7,30.30,SE,124,2.0,2.0,46,0.00,,,0.00,318,WeatherCatV1.20B785,2013-12-13 14:54:00,
2013-12-13 09:55:00,33.3,15.8,30.30,South,173,0.0,3.0,48,0.00,,,0.00,345,WeatherCatV1.20B785,2013-12-13 14:55:00,
2013-12-13 09:56:00,33.4,14.4,30.30,East,86,1.0,6.0,45,0.00,,,0.00,353,WeatherCatV1.20B785,2013-12-13 14:56:00,
2013-12-13 09:57:00,33.5,14.5,30.30,South,187,0.0,6.0,45,0.00,,,0.00,362,WeatherCatV1.20B785,2013-12-13 14:57:00,
2013-12-13 09:58:00,33.5,15.0,30.30,WSW,257,4.0,4.0,46,0.00,,,0.00,352,WeatherCatV1.20B785,2013-12-13 14:58:00,
2013-12-13 09:59:00,33.6,15.1,30.30,WNW,288,1.0,4.0,46,0.00,,,0.00,343,WeatherCatV1.20B785,2013-12-13 14:59:00,
2013-12-13 10:00:00,33.7,14.6,30.30,WNW,290,2.0,4.0,45,0.00,,,0.00,355,WeatherCatV1.20B785,2013-12-13 15:00:00,
2013-12-13 10:02:00,33.8,13.7,30.30,SE,125,3.0,6.0,43,0.00,,,0.00,376,WeatherCatV1.20B785,2013-12-13 15:02:00,
2013-12-13 10:03:00,33.8,13.7,30.31,SSE,151,0.0,3.0,43,0.00,,,0.00,380,WeatherCatV1.20B785,2013-12-13 15:03:00,
2013-12-13 10:04:00,33.7,13.6,30.31,SW,220,1.0,2.0,43,0.00,,,0.00,380,WeatherCatV1.20B785,2013-12-13 15:04:00,
2013-12-13 10:05:00,33.8,14.7,30.31,SSW,213,0.0,1.0,45,0.00,,,0.00,383,WeatherCatV1.20B785,2013-12-13 15:05:00,
2013-12-13 10:07:00,33.9,14.3,30.31,South,177,3.0,4.0,44,0.00,,,0.00,385,WeatherCatV1.20B785,2013-12-13 15:07:00,
2013-12-13 10:08:00,34.1,14.5,30.31,SSW,206,2.0,4.0,44,0.00,,,0.00,388,WeatherCatV1.20B785,2013-12-13 15:08:00,
2013-12-13 10:09:00,34.2,14.6,30.31,WSW,243,1.0,3.0,44,0.00,,,0.00,390,WeatherCatV1.20B785,2013-12-13 15:09:00,
2013-12-13 10:11:00,34.3,15.2,30.31,South,169,0.0,6.0,45,0.00,,,0.00,396,WeatherCatV1.20B785,2013-12-13 15:11:00,
2013-12-13 10:12:00,34.4,15.3,30.30,SSE,168,4.0,4.0,45,0.00,,,0.00,396,WeatherCatV1.20B785,2013-12-13 15:12:00,
2013-12-13 10:14:00,34.5,15.4,30.31,West,271,1.0,4.0,45,0.00,,,0.00,399,WeatherCatV1.20B785,2013-12-13 15:14:00,
2013-12-13 10:15:00,34.6,15.5,30.30,South,185,0.0,5.0,45,0.00,,,0.00,401,WeatherCatV1.20B785,2013-12-13 15:15:00,
2013-12-13 10:16:00,34.6,17.4,30.30,SSE,150,0.0,5.0,49,0.00,,,0.00,404,WeatherCatV1.20B785,2013-12-13 15:16:00,
2013-12-13 10:17:00,34.7,17.0,30.30,WSW,244,1.0,2.0,48,0.00,,,0.00,406,WeatherCatV1.20B785,2013-12-13 15:17:00,
2013-12-13 10:19:00,34.9,14.7,30.30,West,279,3.0,3.0,43,0.00,,,0.00,297,WeatherCatV1.20B785,2013-12-13 15:19:00,
2013-12-13 10:21:00,35.1,14.4,30.30,South,183,2.0,4.0,42,0.00,,,0.00,258,WeatherCatV1.20B785,2013-12-13 15:21:00,
2013-12-13 10:22:00,35.2,14.4,30.30,West,267,3.0,3.0,42,0.00,,,0.00,278,WeatherCatV1.20B785,2013-12-13 15:22:00,
2013-12-13 10:23:00,35.4,14.1,30.30,SSE,156,1.0,3.0,41,0.00,,,0.00,227,WeatherCatV1.20B785,2013-12-13 15:23:00,
2013-12-13 10:24:00,35.5,14.2,30.30,SW,225,0.0,2.0,41,0.00,,,0.00,130,WeatherCatV1.20B785,2013-12-13 15:24:00,
2013-12-13 10:25:00,35.5,13.6,30.30,SW,225,0.0,2.0,40,0.00,,,0.00,130,WeatherCatV1.20B785,2013-12-13 15:25:00,
2013-12-13 10:26:00,35.6,13.7,30.30,SSW,206,1.0,2.0,40,0.00,,,0.00,70,WeatherCatV1.20B785,2013-12-13 15:26:00,
2013-12-13 10:27:00,35.6,13.7,30.30,SW,223,2.0,2.0,40,0.00,,,0.00,70,WeatherCatV1.20B785,2013-12-13 15:27:00,
2013-12-13 10:29:00,35.6,13.7,30.30,WNW,291,4.0,8.0,40,0.00,,,0.00,54,WeatherCatV1.20B785,2013-12-13 15:29:00,
2013-12-13 10:30:00,35.6,14.2,30.30,South,191,1.0,5.0,41,0.00,,,0.00,58,WeatherCatV1.20B785,2013-12-13 15:30:00,
2013-12-13 10:32:00,35.4,15.7,30.30,SW,221,2.0,2.0,44,0.00,,,0.00,60,WeatherCatV1.20B785,2013-12-13 15:32:00,
2013-12-13 10:34:00,35.3,14.0,30.30,WSW,239,3.0,4.0,41,0.00,,,0.00,77,WeatherCatV1.20B785,2013-12-13 15:34:00,
2013-12-13 10:35:00,35.3,13.4,30.30,WNW,286,2.0,5.0,40,0.00,,,0.01,49,WeatherCatV1.20B785,2013-12-13 15:35:00,
2013-12-13 10:37:00,35.2,13.3,30.30,NNW,328,0.0,3.0,40,0.00,,,0.01,49,WeatherCatV1.20B785,2013-12-13 15:37:00,
2013-12-13 10:38:00,35.2,13.3,30.30,WNW,289,3.0,3.0,40,0.00,,,0.01,49,WeatherCatV1.20B785,2013-12-13 15:38:00,
2013-12-13 10:39:00,35.2,13.3,30.30,WSW,254,1.0,3.0,40,0.00,,,0.01,46,WeatherCatV1.20B785,2013-12-13 15:39:00,
2013-12-13 10:40:00,35.3,12.8,30.30,SSE,162,2.0,3.0,39,0.00,,,0.01,51,WeatherCatV1.20B785,2013-12-13 15:40:00,
2013-12-13 10:41:00,35.3,12.8,30.30,SSW,206,1.0,3.0,39,0.00,,,0.01,46,WeatherCatV1.20B785,2013-12-13 15:41:00,
2013-12-13 10:42:00,35.3,14.5,30.30,WSW,246,4.0,5.0,42,0.00,,,0.01,62,WeatherCatV1.20B785,2013-12-13 15:42:00,
2013-12-13 10:43:00,35.3,13.4,30.30,SW,228,2.0,8.0,40,0.00,,,0.01,51,WeatherCatV1.20B785,2013-12-13 15:43:00,
2013-12-13 10:44:00,35.3,14.0,30.30,WNW,288,4.0,8.0,41,0.00,,,0.01,46,WeatherCatV1.20B785,2013-12-13 15:44:00,
2013-12-13 10:45:00,35.3,14.0,30.30,ESE,105,1.0,6.0,41,0.00,,,0.01,44,WeatherCatV1.20B785,2013-12-13 15:45:00,
2013-12-13 10:46:00,35.3,14.5,30.30,South,173,2.0,3.0,42,0.00,,,0.01,44,WeatherCatV1.20B785,2013-12-13 15:46:00,
2013-12-13 10:51:00,35.2,14.4,30.30,WSW,251,2.0,2.0,42,0.00,,,0.01,49,WeatherCatV1.20B785,2013-12-13 15:51:00,
2013-12-13 10:52:00,35.2,13.9,30.30,West,273,2.0,5.0,41,0.00,,,0.01,53,WeatherCatV1.20B785,2013-12-13 15:52:00,
2013-12-13 10:56:00,35.4,13.5,30.29,WNW,283,0.0,3.0,40,0.00,,,0.01,125,WeatherCatV1.20B785,2013-12-13 15:56:00,
2013-12-13 10:57:00,35.4,13.5,30.29,WNW,288,1.0,3.0,40,0.00,,,0.01,216,WeatherCatV1.20B785,2013-12-13 15:57:00,
2013-12-13 11:01:00,35.8,15.0,30.29,West,269,1.0,2.0,42,0.00,,,0.01,260,WeatherCatV1.20B785,2013-12-13 16:01:00,
2013-12-13 11:02:00,35.8,15.0,30.29,West,269,1.0,2.0,42,0.00,,,0.01,260,WeatherCatV1.20B785,2013-12-13 16:02:00,
2013-12-13 11:03:00,35.8,16.0,30.29,West,269,0.0,1.0,44,0.00,,,0.01,225,WeatherCatV1.20B785,2013-12-13 16:03:00,
2013-12-13 11:07:00,36.0,14.6,30.29,West,273,6.0,7.0,41,0.00,,,0.01,237,WeatherCatV1.20B785,2013-12-13 16:07:00,
2013-12-13 11:08:00,36.0,14.1,30.29,West,275,3.0,7.0,40,0.00,,,0.01,243,WeatherCatV1.20B785,2013-12-13 16:08:00,
2013-12-13 11:12:00,36.2,14.2,30.29,West,270,3.0,5.0,40,0.00,,,0.01,120,WeatherCatV1.20B785,2013-12-13 16:12:00,
2013-12-13 11:13:00,36.3,14.9,30.29,WSW,254,2.0,5.0,41,0.00,,,0.01,109,WeatherCatV1.20B785,2013-12-13 16:13:00,
2013-12-13 11:14:00,36.3,14.9,30.29,West,261,3.0,5.0,41,0.00,,,0.01,74,WeatherCatV1.20B785,2013-12-13 16:14:00,
2013-12-13 11:17:00,36.4,14.4,30.28,WNW,298,2.0,3.0,40,0.00,,,0.01,47,WeatherCatV1.20B785,2013-12-13 16:17:00,
2013-12-13 11:18:00,36.5,14.5,30.28,West,277,2.0,3.0,40,0.00,,,0.01,60,WeatherCatV1.20B785,2013-12-13 16:18:00,
2013-12-13 11:19:00,36.6,15.7,30.28,NW,307,4.0,4.0,42,0.00,,,0.01,90,WeatherCatV1.20B785,2013-12-13 16:19:00,
2013-12-13 11:22:00,36.7,14.1,30.28,WSW,249,3.0,4.0,39,0.00,,,0.01,385,WeatherCatV1.20B785,2013-12-13 16:22:00,
2013-12-13 11:23:00,36.8,14.2,30.28,West,266,3.0,6.0,39,0.00,,,0.01,457,WeatherCatV1.20B785,2013-12-13 16:23:00,
2013-12-13 11:24:00,36.8,14.8,30.28,NW,310,3.0,6.0,40,0.00,,,0.01,485,WeatherCatV1.20B785,2013-12-13 16:24:00,
2013-12-13 11:27:00,37.0,16.1,30.28,WSW,243,4.0,4.0,42,0.00,,,0.01,489,WeatherCatV1.20B785,2013-12-13 16:27:00,
2013-12-13 11:28:00,37.1,15.6,30.28,NW,310,1.0,4.0,41,0.00,,,0.01,487,WeatherCatV1.20B785,2013-12-13 16:28:00,
2013-12-13 11:29:00,37.1,15.6,30.28,SW,221,2.0,5.0,41,0.00,,,0.01,487,WeatherCatV1.20B785,2013-12-13 16:29:00,
2013-12-13 11:33:00,37.4,15.3,30.28,West,281,3.0,5.0,40,0.00,,,0.01,230,WeatherCatV1.20B785,2013-12-13 16:33:00,
2013-12-13 11:34:00,37.5,15.4,30.28,NW,313,8.0,9.0,40,0.00,,,0.01,316,WeatherCatV1.20B785,2013-12-13 16:34:00,
2013-12-13 11:35:00,37.5,14.8,30.28,West,272,4.0,9.0,39,0.00,,,0.01,323,WeatherCatV1.20B785,2013-12-13 16:35:00,
2013-12-13 11:38:00,37.7,15.6,30.27,WNW,291,3.0,4.0,40,0.00,,,0.01,74,WeatherCatV1.20B785,2013-12-13 16:38:00,
2013-12-13 11:39:00,37.7,15.6,30.27,West,277,4.0,4.0,40,0.00,,,0.01,74,WeatherCatV1.20B785,2013-12-13 16:39:00,
2013-12-13 11:40:00,37.7,16.1,30.27,West,280,7.0,8.0,41,0.00,,,0.01,95,WeatherCatV1.20B785,2013-12-13 16:40:00,
2013-12-13 11:44:00,37.9,18.0,30.27,WNW,285,2.0,4.0,44,0.00,,,0.01,207,WeatherCatV1.20B785,2013-12-13 16:44:00,
2013-12-13 11:45:00,38.0,16.4,30.27,WNW,296,3.0,5.0,41,0.00,,,0.01,499,WeatherCatV1.20B785,2013-12-13 16:45:00,
2013-12-13 11:49:00,38.3,16.1,30.26,NW,309,2.0,3.0,40,0.00,,,0.01,422,WeatherCatV1.20B785,2013-12-13 16:49:00,
2013-12-13 11:50:00,38.4,16.2,30.26,West,269,2.0,2.0,40,0.00,,,0.01,422,WeatherCatV1.20B785,2013-12-13 16:50:00,
2013-12-13 11:51:00,38.4,16.2,30.26,WNW,290,1.0,2.0,40,0.00,,,0.01,79,WeatherCatV1.20B785,2013-12-13 16:51:00,
2013-12-13 11:54:00,38.6,15.8,30.26,WSW,258,8.0,12.0,39,0.00,,,0.01,49,WeatherCatV1.20B785,2013-12-13 16:54:00,
2013-12-13 11:55:00,38.6,15.8,30.26,West,275,5.0,9.0,39,0.00,,,0.01,65,WeatherCatV1.20B785,2013-12-13 16:55:00,
2013-12-13 11:56:00,38.6,15.8,30.26,West,270,6.0,9.0,39,0.00,,,0.01,65,WeatherCatV1.20B785,2013-12-13 16:56:00,
2013-12-13 12:00:00,38.6,16.4,30.26,WSW,250,4.0,7.0,40,0.00,,,0.01,62,WeatherCatV1.20B785,2013-12-13 17:00:00,
2013-12-13 12:01:00,38.6,16.4,30.26,WSW,250,4.0,7.0,40,0.00,,,0.01,62,WeatherCatV1.20B785,2013-12-13 17:01:00,
2013-12-13 12:02:00,38.6,17.0,30.26,SW,231,3.0,7.0,41,0.00,,,0.01,49,WeatherCatV1.20B785,2013-12-13 17:02:00,
2013-12-13 12:06:00,38.5,16.3,30.26,WSW,258,5.0,9.0,40,0.00,,,0.01,90,WeatherCatV1.20B785,2013-12-13 17:06:00,
2013-12-13 12:07:00,38.5,15.7,30.26,WSW,250,6.0,12.0,39,0.00,,,0.01,84,WeatherCatV1.20B785,2013-12-13 17:07:00,
2013-12-13 12:08:00,38.5,15.7,30.26,West,274,8.0,14.0,39,0.00,,,0.01,142,WeatherCatV1.20B785,2013-12-13 17:08:00,
2013-12-13 12:11:00,38.5,15.1,30.26,WNW,298,4.0,5.0,38,0.00,,,0.01,91,WeatherCatV1.20B785,2013-12-13 17:11:00,
2013-12-13 12:12:00,38.5,16.3,30.26,WSW,250,5.0,6.0,40,0.00,,,0.01,53,WeatherCatV1.20B785,2013-12-13 17:12:00,
2013-12-13 12:15:00,38.6,15.8,30.26,West,272,6.0,7.0,39,0.00,,,0.01,70,WeatherCatV1.20B785,2013-12-13 17:15:00,
2013-12-13 12:16:00,38.7,15.9,30.26,WSW,258,8.0,8.0,39,0.00,,,0.01,93,WeatherCatV1.20B785,2013-12-13 17:16:00,
2013-12-13 12:17:00,38.7,15.3,30.26,WSW,257,6.0,9.0,38,0.00,,,0.01,90,WeatherCatV1.20B785,2013-12-13 17:17:00,
2013-12-13 12:18:00,38.8,15.4,30.25,WNW,288,7.0,9.0,38,0.00,,,0.01,86,WeatherCatV1.20B785,2013-12-13 17:18:00,
2013-12-13 12:21:00,38.8,16.0,30.25,WSW,254,3.0,8.0,39,0.00,,,0.01,74,WeatherCatV1.20B785,2013-12-13 17:21:00,
2013-12-13 12:22:00,38.8,16.0,30.25,WSW,246,4.0,8.0,39,0.00,,,0.01,63,WeatherCatV1.20B785,2013-12-13 17:22:00,
2013-12-13 12:23:00,38.8,16.0,30.25,WSW,248,6.0,6.0,39,0.00,,,0.01,63,WeatherCatV1.20B785,2013-12-13 17:23:00,
2013-12-13 12:24:00,38.9,15.5,30.25,WSW,250,10.0,10.0,38,0.00,,,0.01,116,WeatherCatV1.20B785,2013-12-13 17:24:00,
2013-12-13 12:26:00,38.9,15.5,30.25,WSW,237,4.0,10.0,38,0.00,,,0.01,130,WeatherCatV1.20B785,2013-12-13 17:26:00,
2013-12-13 12:27:00,38.9,16.1,30.26,West,276,5.0,9.0,39,0.00,,,0.01,111,WeatherCatV1.20B785,2013-12-13 17:27:00,
2013-12-13 12:28:00,38.9,16.1,30.25,West,276,5.0,9.0,39,0.00,,,0.01,111,WeatherCatV1.20B785,2013-12-13 17:28:00,
2013-12-13 12:30:00,39.0,16.8,30.25,West,263,6.0,6.0,40,0.00,,,0.01,199,WeatherCatV1.20B785,2013-12-13 17:30:00,
2013-12-13 12:32:00,39.1,15.7,30.25,West,277,2.0,5.0,38,0.00,,,0.01,269,WeatherCatV1.20B785,2013-12-13 17:32:00,
2013-12-13 12:33:00,39.1,15.7,30.25,NNW,344,2.0,6.0,38,0.00,,,0.01,105,WeatherCatV1.20B785,2013-12-13 17:33:00,
2013-12-13 12:34:00,39.2,15.8,30.25,West,273,4.0,6.0,38,0.00,,,0.01,105,WeatherCatV1.20B785,2013-12-13 17:34:00,
2013-12-13 12:35:00,39.3,17.0,30.25,WSW,249,3.0,5.0,40,0.00,,,0.01,123,WeatherCatV1.20B785,2013-12-13 17:35:00,
2013-12-13 12:37:00,39.4,15.9,30.25,West,274,2.0,5.0,38,0.00,,,0.01,49,WeatherCatV1.20B785,2013-12-13 17:37:00,
2013-12-13 12:38:00,39.5,17.8,30.25,SW,229,0.0,2.0,41,0.00,,,0.01,60,WeatherCatV1.20B785,2013-12-13 17:38:00,
2013-12-13 12:39:00,39.5,17.8,30.25,West,280,4.0,4.0,41,0.00,,,0.01,60,WeatherCatV1.20B785,2013-12-13 17:39:00,
2013-12-13 12:40:00,39.5,17.2,30.25,West,260,8.0,10.0,40,0.00,,,0.01,60,WeatherCatV1.20B785,2013-12-13 17:40:00,
2013-12-13 12:42:00,39.6,16.1,30.25,West,267,8.0,11.0,38,0.00,,,0.01,445,WeatherCatV1.20B785,2013-12-13 17:42:00,
2013-12-13 12:44:00,39.6,16.1,30.25,WNW,294,5.0,10.0,38,0.00,,,0.02,431,WeatherCatV1.20B785,2013-12-13 17:44:00,
2013-12-13 12:45:00,39.7,17.4,30.25,WNW,302,0.0,6.0,40,0.00,,,0.02,462,WeatherCatV1.20B785,2013-12-13 17:45:00,
2013-12-13 12:46:00,39.8,18.0,30.25,West,275,5.0,5.0,41,0.00,,,0.02,410,WeatherCatV1.20B785,2013-12-13 17:46:00,
2013-12-13 12:48:00,40.0,17.6,30.25,WNW,282,5.0,9.0,40,0.00,,,0.02,309,WeatherCatV1.20B785,2013-12-13 17:48:00,
2013-12-13 12:49:00,40.1,17.7,30.25,WNW,292,4.0,9.0,40,0.00,,,0.02,309,WeatherCatV1.20B785,2013-12-13 17:49:00,
2013-12-13 12:50:00,40.2,17.2,30.25,West,262,8.0,11.0,39,0.00,,,0.02,462,WeatherCatV1.20B785,2013-12-13 17:50:00,
2013-12-13 12:51:00,40.4,17.4,30.25,West,262,6.0,11.0,39,0.00,,,0.02,388,WeatherCatV1.20B785,2013-12-13 17:51:00,
2013-12-13 12:53:00,40.4,17.4,30.25,West,275,7.0,10.0,39,0.00,,,0.02,350,WeatherCatV1.20B785,2013-12-13 17:53:00,
2013-12-13 12:54:00,40.5,17.5,30.25,West,269,6.0,9.0,39,0.00,,,0.02,146,WeatherCatV1.20B785,2013-12-13 17:54:00,
2013-12-13 12:55:00,40.5,16.9,30.25,WSW,255,7.0,8.0,38,0.00,,,0.02,139,WeatherCatV1.20B785,2013-12-13 17:55:00,
2013-12-13 12:57:00,40.5,18.1,30.25,WNW,285,5.0,8.0,40,0.00,,,0.02,139,WeatherCatV1.20B785,2013-12-13 17:57:00,
2013-12-13 12:58:00,40.5,18.1,30.25,NW,309,8.0,10.0,40,0.00,,,0.02,297,WeatherCatV1.20B785,2013-12-13 17:58:00,
2013-12-13 12:59:00,40.6,16.4,30.25,WSW,254,4.0,14.0,37,0.00,,,0.02,265,WeatherCatV1.20B785,2013-12-13 17:59:00,
2013-12-13 13:00:00,40.6,16.4,30.25,West,262,3.0,14.0,37,0.00,,,0.02,265,WeatherCatV1.20B785,2013-12-13 18:00:00,
2013-12-13 13:01:00,40.6,16.4,30.24,West,276,1.0,7.0,37,0.00,,,0.02,258,WeatherCatV1.20B785,2013-12-13 18:01:00,
2013-12-13 13:02:00,40.6,17.6,30.25,WSW,247,4.0,9.0,39,0.00,,,0.02,237,WeatherCatV1.20B785,2013-12-13 18:02:00,
2013-12-13 13:03:00,40.6,17.0,30.24,West,264,5.0,9.0,38,0.00,,,0.02,207,WeatherCatV1.20B785,2013-12-13 18:03:00,
2013-12-13 13:05:00,40.6,17.0,30.24,WNW,288,9.0,9.0,38,0.00,,,0.02,120,WeatherCatV1.20B785,2013-12-13 18:05:00,
2013-12-13 13:08:00,40.5,16.9,30.24,WSW,244,2.0,7.0,38,0.00,,,0.02,49,WeatherCatV1.20B785,2013-12-13 18:08:00,
2013-12-13 13:09:00,40.5,16.9,30.24,West,271,7.0,7.0,38,0.00,,,0.02,44,WeatherCatV1.20B785,2013-12-13 18:09:00,
2013-12-13 13:10:00,40.5,16.9,30.24,West,265,3.0,8.0,38,0.00,,,0.02,56,WeatherCatV1.20B785,2013-12-13 18:10:00,
2013-12-13 13:11:00,40.5,18.1,30.24,West,277,9.0,9.0,40,0.00,,,0.02,49,WeatherCatV1.20B785,2013-12-13 18:11:00,
2013-12-13 13:13:00,40.4,16.8,30.24,WSW,249,3.0,10.0,38,0.00,,,0.02,44,WeatherCatV1.20B785,2013-12-13 18:13:00,
2013-12-13 13:14:00,40.4,16.8,30.24,WSW,254,3.0,4.0,38,0.00,,,0.02,44,WeatherCatV1.20B785,2013-12-13 18:14:00,
2013-12-13 13:15:00,40.4,17.4,30.24,WNW,282,6.0,7.0,39,0.00,,,0.02,44,WeatherCatV1.20B785,2013-12-13 18:15:00,
2013-12-13 13:16:00,40.4,18.0,30.24,WSW,257,7.0,8.0,40,0.00,,,0.02,44,WeatherCatV1.20B785,2013-12-13 18:16:00,
2013-12-13 13:18:00,40.4,16.8,30.24,West,278,6.0,9.0,38,0.00,,,0.02,44,WeatherCatV1.20B785,2013-12-13 18:18:00,
2013-12-13 13:19:00,40.4,18.0,30.24,WNW,294,6.0,7.0,40,0.00,,,0.02,44,WeatherCatV1.20B785,2013-12-13 18:19:00,
2013-12-13 13:20:00,40.4,17.4,30.24,West,273,4.0,7.0,39,0.00,,,0.02,44,WeatherCatV1.20B785,2013-12-13 18:20:00,
2013-12-13 13:21:00,40.4,17.4,30.24,West,259,7.0,8.0,39,0.00,,,0.02,46,WeatherCatV1.20B785,2013-12-13 18:21:00,
2013-12-13 13:22:00,40.4,17.4,30.24,West,277,4.0,8.0,39,0.00,,,0.02,65,WeatherCatV1.20B785,2013-12-13 18:22:00,
2013-12-13 13:24:00,40.4,16.8,30.24,West,266,6.0,12.0,38,0.00,,,0.02,130,WeatherCatV1.20B785,2013-12-13 18:24:00,
2013-12-13 13:25:00,40.5,17.5,30.24,WSW,239,4.0,6.0,39,0.00,,,0.02,299,WeatherCatV1.20B785,2013-12-13 18:25:00,
2013-12-13 13:26:00,40.5,17.5,30.24,West,260,6.0,6.0,39,0.00,,,0.02,225,WeatherCatV1.20B785,2013-12-13 18:26:00,
2013-12-13 13:27:00,40.5,17.5,30.24,WSW,249,10.0,11.0,39,0.00,,,0.02,79,WeatherCatV1.20B785,2013-12-13 18:27:00,
2013-12-13 13:29:00,40.5,16.9,30.24,WSW,240,4.0,9.0,38,0.00,,,0.02,84,WeatherCatV1.20B785,2013-12-13 18:29:00,
2013-12-13 13:30:00,40.5,17.5,30.23,West,260,2.0,7.0,39,0.00,,,0.02,128,WeatherCatV1.20B785,2013-12-13 18:30:00,
2013-12-13 13:32:00,40.5,18.1,30.23,WSW,240,3.0,4.0,40,0.00,,,0.02,183,WeatherCatV1.20B785,2013-12-13 18:32:00,
2013-12-13 13:34:00,40.5,17.5,30.23,WSW,255,6.0,7.0,39,0.00,,,0.02,74,WeatherCatV1.20B785,2013-12-13 18:34:00,
2013-12-13 13:35:00,40.5,17.5,30.23,WSW,257,4.0,7.0,39,0.00,,,0.02,69,WeatherCatV1.20B785,2013-12-13 18:35:00,
2013-12-13 13:36:00,40.5,17.5,30.23,WSW,255,3.0,5.0,39,0.00,,,0.02,53,WeatherCatV1.20B785,2013-12-13 18:36:00,
2013-12-13 13:37:00,40.5,17.5,30.24,WSW,252,5.0,7.0,39,0.00,,,0.02,46,WeatherCatV1.20B785,2013-12-13 18:37:00,
2013-12-13 13:39:00,40.6,17.6,30.23,West,264,8.0,8.0,39,0.00,,,0.02,46,WeatherCatV1.20B785,2013-12-13 18:39:00,
2013-12-13 13:40:00,40.7,17.1,30.23,WNW,296,7.0,8.0,38,0.00,,,0.02,46,WeatherCatV1.20B785,2013-12-13 18:40:00,
2013-12-13 13:42:00,40.7,18.9,30.23,WSW,239,5.0,7.0,41,0.00,,,0.02,84,WeatherCatV1.20B785,2013-12-13 18:42:00,
2013-12-13 13:45:00,40.7,17.7,30.23,West,276,6.0,10.0,39,0.00,,,0.02,60,WeatherCatV1.20B785,2013-12-13 18:45:00,
2013-12-13 13:46:00,40.7,18.3,30.23,WSW,241,5.0,8.0,40,0.00,,,0.02,63,WeatherCatV1.20B785,2013-12-13 18:46:00,
2013-12-13 13:47:00,40.7,17.1,30.23,West,274,7.0,8.0,38,0.00,,,0.02,83,WeatherCatV1.20B785,2013-12-13 18:47:00,
2013-12-13 13:48:00,40.7,17.1,30.23,West,266,4.0,8.0,38,0.00,,,0.02,83,WeatherCatV1.20B785,2013-12-13 18:48:00,
2013-12-13 13:51:00,40.8,18.4,30.23,SW,227,4.0,5.0,40,0.00,,,0.02,63,WeatherCatV1.20B785,2013-12-13 18:51:00,
2013-12-13 13:52:00,40.7,17.7,30.23,WSW,250,5.0,6.0,39,0.00,,,0.02,51,WeatherCatV1.20B785,2013-12-13 18:52:00,
2013-12-13 13:53:00,40.8,17.2,30.23,SW,233,1.0,6.0,38,0.00,,,0.02,53,WeatherCatV1.20B785,2013-12-13 18:53:00,
2013-12-13 13:54:00,40.8,17.2,30.23,SW,233,0.0,6.0,38,0.00,,,0.02,53,WeatherCatV1.20B785,2013-12-13 18:54:00,
2013-12-13 13:56:00,40.8,17.8,30.23,West,277,9.0,10.0,39,0.00,,,0.02,58,WeatherCatV1.20B785,2013-12-13 18:56:00,
2013-12-13 13:58:00,40.8,17.8,30.23,West,268,1.0,5.0,39,0.00,,,0.02,54,WeatherCatV1.20B785,2013-12-13 18:58:00,
2013-12-13 13:59:00,40.8,19.5,30.23,NW,312,5.0,10.0,42,0.00,,,0.02,51,WeatherCatV1.20B785,2013-12-13 18:59:00,
2013-12-13 14:01:00,40.8,18.4,30.23,West,262,6.0,9.0,40,0.00,,,0.02,42,WeatherCatV1.20B785,2013-12-13 19:01:00,
2013-12-13 14:03:00,40.7,17.7,30.23,West,267,5.0,10.0,39,0.00,,,0.02,44,WeatherCatV1.20B785,2013-12-13 19:03:00,
2013-12-13 14:04:00,40.7,18.3,30.23,West,269,6.0,10.0,40,0.00,,,0.02,53,WeatherCatV1.20B785,2013-12-13 19:04:00,
2013-12-13 14:07:00,40.8,17.8,30.22,WNW,284,3.0,5.0,39,0.00,,,0.02,53,WeatherCatV1.20B785,2013-12-13 19:07:00,
2013-12-13 14:08:00,40.8,17.8,30.22,WNW,291,3.0,8.0,39,0.00,,,0.02,54,WeatherCatV1.20B785,2013-12-13 19:08:00,
2013-12-13 14:09:00,40.8,17.2,30.22,NW,310,4.0,6.0,38,0.00,,,0.02,56,WeatherCatV1.20B785,2013-12-13 19:09:00,
2013-12-13 14:12:00,40.9,19.6,30.23,WSW,248,2.0,4.0,42,0.00,,,0.02,79,WeatherCatV1.20B785,2013-12-13 19:12:00,
2013-12-13 14:13:00,40.9,19.6,30.22,WNW,289,2.0,4.0,42,0.00,,,0.02,90,WeatherCatV1.20B785,2013-12-13 19:13:00,
2013-12-13 14:14:00,40.9,19.6,30.22,West,276,3.0,4.0,42,0.00,,,0.02,100,WeatherCatV1.20B785,2013-12-13 19:14:00,
2013-12-13 14:15:00,40.9,17.9,30.22,WSW,237,2.0,5.0,39,0.00,,,0.02,104,WeatherCatV1.20B785,2013-12-13 19:15:00,
2013-12-13 14:16:00,40.9,19.0,30.22,NW,308,4.0,7.0,41,0.00,,,0.02,84,WeatherCatV1.20B785,2013-12-13 19:16:00,
2013-12-13 14:18:00,41.0,17.4,30.22,WSW,246,6.0,7.0,38,0.00,,,0.02,47,WeatherCatV1.20B785,2013-12-13 19:18:00,
2013-12-13 14:19:00,41.1,17.5,30.22,WNW,283,8.0,12.0,38,0.00,,,0.02,47,WeatherCatV1.20B785,2013-12-13 19:19:00,
2013-12-13 14:20:00,41.1,17.5,30.22,WSW,247,3.0,12.0,38,0.00,,,0.02,51,WeatherCatV1.20B785,2013-12-13 19:20:00,
2013-12-13 14:21:00,41.2,17.5,30.22,South,171,1.0,5.0,38,0.00,,,0.02,49,WeatherCatV1.20B785,2013-12-13 19:21:00,
2013-12-13 14:23:00,41.2,18.7,30.22,WSW,242,2.0,7.0,40,0.00,,,0.02,56,WeatherCatV1.20B785,2013-12-13 19:23:00,
2013-12-13 14:24:00,41.2,18.1,30.22,West,260,3.0,7.0,39,0.00,,,0.02,56,WeatherCatV1.20B785,2013-12-13 19:24:00,
2013-12-13 14:25:00,41.2,18.1,30.22,South,181,2.0,7.0,39,0.00,,,0.02,95,WeatherCatV1.20B785,2013-12-13 19:25:00,
2013-12-13 14:26:00,41.2,18.1,30.22,SW,230,6.0,7.0,39,0.00,,,0.02,65,WeatherCatV1.20B785,2013-12-13 19:26:00,
2013-12-13 14:28:00,41.1,18.0,30.22,West,259,2.0,4.0,39,0.00,,,0.03,51,WeatherCatV1.20B785,2013-12-13 19:28:00,
2013-12-13 14:29:00,41.1,18.6,30.22,WSW,248,3.0,4.0,40,0.00,,,0.03,51,WeatherCatV1.20B785,2013-12-13 19:29:00,
2013-12-13 14:30:00,41.1,18.6,30.22,WSW,246,1.0,4.0,40,0.00,,,0.03,67,WeatherCatV1.20B785,2013-12-13 19:30:00,
2013-12-13 14:31:00,41.1,17.5,30.22,SSW,204,1.0,4.0,38,0.00,,,0.03,67,WeatherCatV1.20B785,2013-12-13 19:31:00,
2013-12-13 14:32:00,41.1,20.3,30.22,WSW,255,4.0,5.0,43,0.00,,,0.03,56,WeatherCatV1.20B785,2013-12-13 19:32:00,
2013-12-13 14:34:00,41.2,18.1,30.22,WSW,239,4.0,7.0,39,0.00,,,0.03,40,WeatherCatV1.20B785,2013-12-13 19:34:00,
2013-12-13 14:36:00,41.3,18.8,30.22,SW,230,2.0,4.0,40,0.00,,,0.03,47,WeatherCatV1.20B785,2013-12-13 19:36:00,
2013-12-13 14:37:00,41.2,18.1,30.22,West,277,5.0,5.0,39,0.00,,,0.03,54,WeatherCatV1.20B785,2013-12-13 19:37:00,
2013-12-13 14:39:00,41.2,19.3,30.22,WNW,290,5.0,6.0,41,0.00,,,0.03,56,WeatherCatV1.20B785,2013-12-13 19:39:00,
2013-12-13 14:40:00,41.2,18.7,30.22,SW,236,3.0,6.0,40,0.00,,,0.03,44,WeatherCatV1.20B785,2013-12-13 19:40:00,
2013-12-13 14:41:00,41.2,18.7,30.22,WSW,254,4.0,7.0,40,0.00,,,0.03,49,WeatherCatV1.20B785,2013-12-13 19:41:00,
2013-12-13 14:42:00,41.1,17.5,30.22,WSW,244,5.0,7.0,38,0.00,,,0.03,51,WeatherCatV1.20B785,2013-12-13 19:42:00,
2013-12-13 14:45:00,41.3,17.6,30.22,WNW,299,1.0,8.0,38,0.00,,,0.03,69,WeatherCatV1.20B785,2013-12-13 19:45:00,
2013-12-13 14:46:00,41.3,20.0,30.22,SW,233,1.0,2.0,42,0.00,,,0.03,53,WeatherCatV1.20B785,2013-12-13 19:46:00,
2013-12-13 14:47:00,41.3,20.0,30.22,SW,233,1.0,2.0,42,0.00,,,0.03,53,WeatherCatV1.20B785,2013-12-13 19:47:00,
2013-12-13 14:50:00,41.2,19.9,30.22,WSW,246,3.0,5.0,42,0.00,,,0.03,42,WeatherCatV1.20B785,2013-12-13 19:50:00,
2013-12-13 14:51:00,41.2,18.7,30.22,NW,315,2.0,4.0,40,0.00,,,0.03,33,WeatherCatV1.20B785,2013-12-13 19:51:00,
2013-12-13 14:52:00,41.2,18.7,30.22,NW,316,3.0,4.0,40,0.00,,,0.03,33,WeatherCatV1.20B785,2013-12-13 19:52:00,
2013-12-13 14:55:00,41.1,18.6,30.22,WSW,250,2.0,2.0,40,0.00,,,0.03,54,WeatherCatV1.20B785,2013-12-13 19:55:00,
2013-12-13 14:56:00,41.2,18.7,30.22,West,260,4.0,4.0,40,0.00,,,0.03,42,WeatherCatV1.20B785,2013-12-13 19:56:00,
2013-12-13 14:57:00,41.2,19.3,30.22,West,260,3.0,5.0,41,0.00,,,0.03,37,WeatherCatV1.20B785,2013-12-13 19:57:00,
2013-12-13 15:01:00,41.3,18.2,30.22,WSW,246,0.0,5.0,39,0.00,,,0.03,35,WeatherCatV1.20B785,2013-12-13 20:01:00,
2013-12-13 15:02:00,41.3,20.5,30.22,WSW,246,0.0,3.0,43,0.00,,,0.03,35,WeatherCatV1.20B785,2013-12-13 20:02:00,
2013-12-13 15:03:00,41.3,20.5,30.22,WNW,283,1.0,2.0,43,0.00,,,0.03,35,WeatherCatV1.20B785,2013-12-13 20:03:00,
2013-12-13 15:06:00,41.2,18.7,30.22,WNW,296,3.0,5.0,40,0.00,,,0.03,54,WeatherCatV1.20B785,2013-12-13 20:06:00,
2013-12-13 15:07:00,41.2,18.7,30.22,West,264,3.0,5.0,40,0.00,,,0.03,44,WeatherCatV1.20B785,2013-12-13 20:07:00,
2013-12-13 15:08:00,41.2,21.0,30.22,WSW,248,3.0,4.0,44,0.00,,,0.03,44,WeatherCatV1.20B785,2013-12-13 20:08:00,
2013-12-13 15:11:00,41.2,18.7,30.22,West,269,4.0,4.0,40,0.00,,,0.03,37,WeatherCatV1.20B785,2013-12-13 20:11:00,
2013-12-13 15:12:00,41.3,18.8,30.22,WSW,252,2.0,4.0,40,0.00,,,0.03,35,WeatherCatV1.20B785,2013-12-13 20:12:00,
2013-12-13 15:13:00,41.3,18.2,30.22,WNW,289,2.0,3.0,39,0.00,,,0.03,33,WeatherCatV1.20B785,2013-12-13 20:13:00,
2013-12-13 15:14:00,41.3,18.2,30.22,West,268,2.0,3.0,39,0.00,,,0.03,33,WeatherCatV1.20B785,2013-12-13 20:14:00,
2013-12-13 15:17:00,41.4,18.9,30.22,West,274,3.0,6.0,40,0.00,,,0.03,42,WeatherCatV1.20B785,2013-12-13 20:17:00,
2013-12-13 15:18:00,41.4,18.3,30.22,WNW,295,2.0,3.0,39,0.00,,,0.03,46,WeatherCatV1.20B785,2013-12-13 20:18:00,
2013-12-13 15:19:00,41.5,18.4,30.22,West,261,4.0,4.0,39,0.00,,,0.03,47,WeatherCatV1.20B785,2013-12-13 20:19:00,
2013-12-13 15:20:00,41.5,18.4,30.22,WNW,302,0.0,4.0,39,0.00,,,0.03,46,WeatherCatV1.20B785,2013-12-13 20:20:00,
2013-12-13 15:22:00,41.6,20.2,30.22,NW,304,5.0,6.0,42,0.00,,,0.03,37,WeatherCatV1.20B785,2013-12-13 20:22:00,
2013-12-13 15:23:00,41.6,18.5,30.22,West,273,2.0,6.0,39,0.00,,,0.03,42,WeatherCatV1.20B785,2013-12-13 20:23:00,
2013-12-13 15:24:00,41.6,19.7,30.22,West,262,2.0,6.0,41,0.00,,,0.03,54,WeatherCatV1.20B785,2013-12-13 20:24:00,
2013-12-13 15:25:00,41.6,19.7,30.22,WSW,242,1.0,2.0,41,0.00,,,0.03,60,WeatherCatV1.20B785,2013-12-13 20:25:00,
2013-12-13 15:26:00,41.6,19.7,30.22,WSW,243,1.0,2.0,41,0.00,,,0.03,49,WeatherCatV1.20B785,2013-12-13 20:26:00,
2013-12-13 15:28:00,41.6,19.1,30.22,South,181,0.0,1.0,40,0.00,,,0.03,33,WeatherCatV1.20B785,2013-12-13 20:28:00,
2013-12-13 15:29:00,41.5,19.6,30.22,WNW,283,1.0,4.0,41,0.00,,,0.03,39,WeatherCatV1.20B785,2013-12-13 20:29:00,
2013-12-13 15:30:00,41.5,20.1,30.22,West,262,3.0,4.0,42,0.00,,,0.03,54,WeatherCatV1.20B785,2013-12-13 20:30:00,
2013-12-13 15:31:00,41.4,21.1,30.22,WSW,253,2.0,4.0,44,0.00,,,0.03,74,WeatherCatV1.20B785,2013-12-13 20:31:00,
2013-12-13 15:33:00,41.4,19.5,30.22,WNW,291,1.0,3.0,41,0.00,,,0.03,56,WeatherCatV1.20B785,2013-12-13 20:33:00,
2013-12-13 15:34:00,41.3,19.4,30.22,West,279,2.0,3.0,41,0.00,,,0.03,44,WeatherCatV1.20B785,2013-12-13 20:34:00,
2013-12-13 15:35:00,41.3,20.5,30.22,West,269,4.0,5.0,43,0.00,,,0.03,49,WeatherCatV1.20B785,2013-12-13 20:35:00,
2013-12-13 15:36:00,41.3,19.4,30.22,West,275,2.0,6.0,41,0.00,,,0.03,40,WeatherCatV1.20B785,2013-12-13 20:36:00,
2013-12-13 15:37:00,41.3,18.2,30.22,West,262,3.0,6.0,39,0.00,,,0.03,39,WeatherCatV1.20B785,2013-12-13 20:37:00,
2013-12-13 15:38:00,41.3,18.8,30.22,West,265,6.0,7.0,40,0.00,,,0.03,35,WeatherCatV1.20B785,2013-12-13 20:38:00,
2013-12-13 15:39:00,41.4,18.3,30.22,SW,231,3.0,8.0,39,0.00,,,0.03,32,WeatherCatV1.20B785,2013-12-13 20:39:00,
2013-12-13 15:40:00,41.4,18.3,30.22,WSW,244,3.0,10.0,39,0.00,,,0.03,32,WeatherCatV1.20B785,2013-12-13 20:40:00,
2013-12-13 15:41:00,41.5,20.1,30.22,WNW,298,3.0,10.0,42,0.00,,,0.03,35,WeatherCatV1.20B785,2013-12-13 20:41:00,
2013-12-13 15:42:00,41.5,20.1,30.22,NW,316,3.0,7.0,42,0.00,,,0.03,39,WeatherCatV1.20B785,2013-12-13 20:42:00,
2013-12-13 15:43:00,41.5,19.0,30.22,West,277,2.0,6.0,40,0.00,,,0.03,40,WeatherCatV1.20B785,2013-12-13 20:43:00,
2013-12-13 15:44:00,41.5,18.4,30.22,WNW,287,3.0,3.0,39,0.00,,,0.03,37,WeatherCatV1.20B785,2013-12-13 20:44:00,
2013-12-13 15:45:00,41.5,19.0,30.22,West,263,1.0,3.0,40,0.00,,,0.03,37,WeatherCatV1.20B785,2013-12-13 20:45:00,
2013-12-13 15:46:00,41.5,20.1,30.22,NW,311,3.0,4.0,42,0.00,,,0.03,35,WeatherCatV1.20B785,2013-12-13 20:46:00,
2013-12-13 15:48:00,41.5,19.6,30.22,SW,232,3.0,4.0,41,0.00,,,0.03,40,WeatherCatV1.20B785,2013-12-13 20:48:00,
2013-12-13 15:50:00,41.4,19.5,30.22,NW,312,4.0,5.0,41,0.00,,,0.03,47,WeatherCatV1.20B785,2013-12-13 20:50:00,
2013-12-13 15:51:00,41.4,18.9,30.22,WSW,250,2.0,5.0,40,0.00,,,0.03,42,WeatherCatV1.20B785,2013-12-13 20:51:00,
2013-12-13 15:52:00,41.4,18.9,30.22,WSW,257,4.0,4.0,40,0.00,,,0.03,37,WeatherCatV1.20B785,2013-12-13 20:52:00,
2013-12-13 15:53:00,41.4,18.3,30.22,WNW,292,2.0,7.0,39,0.00,,,0.03,33,WeatherCatV1.20B785,2013-12-13 20:53:00,
2013-12-13 15:55:00,41.5,19.0,30.22,WNW,298,2.0,4.0,40,0.00,,,0.03,32,WeatherCatV1.20B785,2013-12-13 20:55:00,
2013-12-13 15:56:00,41.5,19.0,30.22,WNW,302,2.0,4.0,40,0.00,,,0.03,33,WeatherCatV1.20B785,2013-12-13 20:56:00,
2013-12-13 15:57:00,41.5,19.6,30.22,WNW,291,1.0,4.0,41,0.00,,,0.03,35,WeatherCatV1.20B785,2013-12-13 20:57:00,
2013-12-13 15:58:00,41.5,19.0,30.22,WSW,255,2.0,4.0,40,0.00,,,0.03,39,WeatherCatV1.20B785,2013-12-13 20:58:00,
2013-12-13 15:59:00,41.4,19.5,30.22,West,262,1.0,4.0,41,0.00,,,0.03,44,WeatherCatV1.20B785,2013-12-13 20:59:00,
2013-12-13 16:01:00,41.4,18.9,30.23,WSW,237,4.0,5.0,40,0.00,,,0.03,30,WeatherCatV1.20B785,2013-12-13 21:01:00,
2013-12-13 16:02:00,41.5,19.6,30.23,West,260,0.0,4.0,41,0.00,,,0.03,32,WeatherCatV1.20B785,2013-12-13 21:02:00,
2013-12-13 16:04:00,41.4,20.0,30.23,West,278,1.0,2.0,42,0.00,,,0.03,30,WeatherCatV1.20B785,2013-12-13 21:04:00,
2013-12-13 16:06:00,41.4,20.0,30.23,WNW,288,2.0,3.0,42,0.00,,,0.03,28,WeatherCatV1.20B785,2013-12-13 21:06:00,
2013-12-13 16:07:00,41.4,20.0,30.23,West,265,1.0,4.0,42,0.00,,,0.03,28,WeatherCatV1.20B785,2013-12-13 21:07:00,
2013-12-13 16:08:00,41.4,18.9,30.23,West,276,2.0,4.0,40,0.00,,,0.04,28,WeatherCatV1.20B785,2013-12-13 21:08:00,
2013-12-13 16:09:00,41.4,19.5,30.23,WNW,282,1.0,3.0,41,0.00,,,0.04,26,WeatherCatV1.20B785,2013-12-13 21:09:00,
2013-12-13 16:11:00,41.3,19.4,30.23,West,281,3.0,5.0,41,0.00,,,0.04,26,WeatherCatV1.20B785,2013-12-13 21:11:00,
2013-12-13 16:12:00,41.3,18.8,30.23,West,259,2.0,5.0,40,0.00,,,0.04,35,WeatherCatV1.20B785,2013-12-13 21:12:00,
2013-12-13 16:14:00,41.3,18.8,30.23,WNW,298,2.0,3.0,40,0.00,,,0.04,32,WeatherCatV1.20B785,2013-12-13 21:14:00,
2013-12-13 16:15:00,41.3,20.0,30.24,WNW,289,2.0,4.0,42,0.00,,,0.04,28,WeatherCatV1.20B785,2013-12-13 21:15:00,
2013-12-13 16:16:00,41.3,21.0,30.24,WNW,285,1.0,4.0,44,0.00,,,0.04,26,WeatherCatV1.20B785,2013-12-13 21:16:00,
2013-12-13 16:17:00,41.2,19.9,30.24,WNW,294,0.0,2.0,42,0.00,,,0.04,23,WeatherCatV1.20B785,2013-12-13 21:17:00,
2013-12-13 16:18:00,41.1,19.8,30.24,WNW,294,0.0,2.0,42,0.00,,,0.04,19,WeatherCatV1.20B785,2013-12-13 21:18:00,
2013-12-13 16:19:00,41.1,18.6,30.24,West,259,0.0,2.0,40,0.00,,,0.04,18,WeatherCatV1.20B785,2013-12-13 21:19:00,
2013-12-13 16:20:00,41.1,18.6,30.24,West,259,1.0,2.0,40,0.00,,,0.04,18,WeatherCatV1.20B785,2013-12-13 21:20:00,
2013-12-13 16:21:00,41.1,19.2,30.24,West,273,2.0,3.0,41,0.00,,,0.04,16,WeatherCatV1.20B785,2013-12-13 21:21:00,
2013-12-13 16:22:00,41.0,19.7,30.24,WNW,283,2.0,3.0,42,0.00,,,0.04,16,WeatherCatV1.20B785,2013-12-13 21:22:00,
2013-12-13 16:23:00,40.9,19.6,30.24,WSW,241,2.0,3.0,42,0.00,,,0.04,16,WeatherCatV1.20B785,2013-12-13 21:23:00,
2013-12-13 16:24:00,40.9,19.0,30.24,WNW,287,0.0,3.0,41,0.00,,,0.04,16,WeatherCatV1.20B785,2013-12-13 21:24:00,
2013-12-13 16:25:00,40.9,18.5,30.24,WSW,252,2.0,2.0,40,0.00,,,0.04,16,WeatherCatV1.20B785,2013-12-13 21:25:00,
2013-12-13 16:26:00,40.8,18.9,30.24,WNW,301,2.0,3.0,41,0.00,,,0.04,14,WeatherCatV1.20B785,2013-12-13 21:26:00,
2013-12-13 16:27:00,40.8,19.5,30.24,WNW,297,1.0,3.0,42,0.00,,,0.04,14,WeatherCatV1.20B785,2013-12-13 21:27:00,
2013-12-13 16:28:00,40.8,18.9,30.24,West,274,0.0,3.0,41,0.00,,,0.04,14,WeatherCatV1.20B785,2013-12-13 21:28:00,
2013-12-13 16:29:00,40.7,18.9,30.24,West,274,0.0,2.0,41,0.00,,,0.04,12,WeatherCatV1.20B785,2013-12-13 21:29:00,
2013-12-13 16:30:00,40.7,19.4,30.24,West,274,0.0,1.0,42,0.00,,,0.04,12,WeatherCatV1.20B785,2013-12-13 21:30:00,
2013-12-13 16:32:00,40.6,18.8,30.24,West,274,0.0,0.0,41,0.00,,,0.04,12,WeatherCatV1.20B785,2013-12-13 21:32:00,
2013-12-13 16:33:00,40.5,18.7,30.24,West,274,0.0,0.0,41,0.00,,,0.04,12,WeatherCatV1.20B785,2013-12-13 21:33:00,
2013-12-13 16:34:00,40.4,19.1,30.24,West,274,0.0,0.0,42,0.00,,,0.04,11,WeatherCatV1.20B785,2013-12-13 21:34:00,
2013-12-13 16:35:00,40.4,19.1,30.24,West,274,0.0,0.0,42,0.00,,,0.04,11,WeatherCatV1.20B785,2013-12-13 21:35:00,
2013-12-13 16:36:00,40.3,18.5,30.24,West,274,0.0,0.0,41,0.00,,,0.04,11,WeatherCatV1.20B785,2013-12-13 21:36:00,
2013-12-13 16:37:00,40.2,18.4,30.24,West,274,0.0,0.0,41,0.00,,,0.04,11,WeatherCatV1.20B785,2013-12-13 21:37:00,
2013-12-13 16:38:00,40.2,18.4,30.24,West,274,0.0,0.0,41,0.00,,,0.04,9,WeatherCatV1.20B785,2013-12-13 21:38:00,
2013-12-13 16:40:00,40.0,18.2,30.24,West,266,2.0,3.0,41,0.00,,,0.04,7,WeatherCatV1.20B785,2013-12-13 21:40:00,
2013-12-13 16:41:00,39.9,18.1,30.24,WSW,258,0.0,3.0,41,0.00,,,0.04,7,WeatherCatV1.20B785,2013-12-13 21:41:00,
2013-12-13 16:42:00,39.8,18.6,30.24,WNW,283,1.0,2.0,42,0.00,,,0.04,7,WeatherCatV1.20B785,2013-12-13 21:42:00,
2013-12-13 16:43:00,39.8,18.6,30.25,WNW,283,0.0,2.0,42,0.00,,,0.04,7,WeatherCatV1.20B785,2013-12-13 21:43:00,
2013-12-13 16:46:00,39.6,19.5,30.25,WNW,283,0.0,0.0,44,0.00,,,0.04,5,WeatherCatV1.20B785,2013-12-13 21:46:00,
2013-12-13 16:47:00,39.5,18.9,30.25,WNW,283,0.0,0.0,43,0.00,,,0.04,5,WeatherCatV1.20B785,2013-12-13 21:47:00,
2013-12-13 16:48:00,39.4,18.8,30.25,WNW,283,0.0,0.0,43,0.00,,,0.04,5,WeatherCatV1.20B785,2013-12-13 21:48:00,
2013-12-13 16:52:00,39.0,19.0,30.25,West,273,1.0,3.0,44,0.00,,,0.04,0,WeatherCatV1.20B785,2013-12-13 21:52:00,
2013-12-13 16:53:00,38.9,18.9,30.25,West,277,1.0,3.0,44,0.00,,,0.04,0,WeatherCatV1.20B785,2013-12-13 21:53:00,
2013-12-13 16:54:00,38.9,19.4,30.25,WSW,252,2.0,3.0,45,0.00,,,0.04,0,WeatherCatV1.20B785,2013-12-13 21:54:00,
2013-12-13 16:55:00,38.8,19.3,30.25,WSW,252,1.0,3.0,45,0.00,,,0.04,0,WeatherCatV1.20B785,2013-12-13 21:55:00,
2013-12-13 16:57:00,38.7,19.2,30.25,West,279,0.0,2.0,45,0.00,,,0.04,0,WeatherCatV1.20B785,2013-12-13 21:57:00,
2013-12-13 16:59:00,38.4,18.9,30.25,West,259,1.0,2.0,45,0.00,,,0.04,0,WeatherCatV1.20B785,2013-12-13 21:59:00,
2013-12-13 17:00:00,38.4,18.9,30.25,West,259,1.0,2.0,45,0.00,,,0.04,0,WeatherCatV1.20B785,2013-12-13 22:00:00,
2013-12-13 17:02:00,38.2,19.8,30.26,West,259,1.0,1.0,47,0.00,,,0.04,0,WeatherCatV1.20B785,2013-12-13 22:02:00,
2013-12-13 17:03:00,38.2,19.3,30.26,West,260,0.0,1.0,46,0.00,,,0.04,0,WeatherCatV1.20B785,2013-12-13 22:03:00,
2013-12-13 17:05:00,38.0,18.6,30.26,West,259,0.0,0.0,45,0.00,,,0.04,0,WeatherCatV1.20B785,2013-12-13 22:05:00,
2013-12-13 17:06:00,37.9,19.0,30.26,West,259,0.0,0.0,46,0.00,,,0.04,0,WeatherCatV1.20B785,2013-12-13 22:06:00,
2013-12-13 17:08:00,37.7,18.8,30.26,West,260,0.0,0.0,46,0.00,,,0.04,0,WeatherCatV1.20B785,2013-12-13 22:08:00,
2013-12-13 17:10:00,37.5,18.6,30.26,West,259,0.0,1.0,46,0.00,,,0.04,0,WeatherCatV1.20B785,2013-12-13 22:10:00,
2013-12-13 17:11:00,37.4,19.0,30.26,West,260,0.0,1.0,47,0.00,,,0.04,0,WeatherCatV1.20B785,2013-12-13 22:11:00,
2013-12-13 17:13:00,37.2,19.3,30.26,WNW,285,0.0,2.0,48,0.00,,,0.04,0,WeatherCatV1.20B785,2013-12-13 22:13:00,
2013-12-13 17:14:00,37.0,20.1,30.26,WNW,285,0.0,2.0,50,0.00,,,0.04,0,WeatherCatV1.20B785,2013-12-13 22:14:00,
2013-12-13 17:15:00,36.9,19.5,30.26,WNW,285,0.0,1.0,49,0.00,,,0.04,0,WeatherCatV1.20B785,2013-12-13 22:15:00,
2013-12-13 17:16:00,36.7,19.4,30.26,WNW,285,0.0,0.0,49,0.00,,,0.04,0,WeatherCatV1.20B785,2013-12-13 22:16:00,
2013-12-13 17:18:00,36.5,18.2,30.26,WNW,285,0.0,0.0,47,0.00,,,0.04,0,WeatherCatV1.20B785,2013-12-13 22:18:00,
2013-12-13 17:19:00,36.4,18.1,30.26,WNW,284,3.0,3.0,47,0.00,,,0.04,0,WeatherCatV1.20B785,2013-12-13 22:19:00,
2013-12-13 17:20:00,36.2,20.7,30.26,WNW,287,2.0,3.0,53,0.00,,,0.04,0,WeatherCatV1.20B785,2013-12-13 22:20:00,
2013-12-13 17:21:00,36.0,19.6,30.26,WNW,287,0.0,2.0,51,0.00,,,0.04,0,WeatherCatV1.20B785,2013-12-13 22:21:00,
2013-12-13 17:22:00,36.0,19.6,30.27,WNW,294,2.0,2.0,51,0.00,,,0.04,0,WeatherCatV1.20B785,2013-12-13 22:22:00,
2013-12-13 17:23:00,35.7,20.3,30.27,WNW,294,0.0,2.0,53,0.00,,,0.04,0,WeatherCatV1.20B785,2013-12-13 22:23:00,
2013-12-13 17:26:00,35.3,21.2,30.27,WNW,283,2.0,4.0,56,0.00,,,0.04,0,WeatherCatV1.20B785,2013-12-13 22:26:00,
2013-12-13 17:27:00,35.1,20.6,30.27,WNW,292,2.0,2.0,55,0.00,,,0.04,0,WeatherCatV1.20B785,2013-12-13 22:27:00,
2013-12-13 17:28:00,35.0,18.7,30.27,WNW,291,1.0,2.0,51,0.00,,,0.04,0,WeatherCatV1.20B785,2013-12-13 22:28:00,
2013-12-13 17:30:00,34.9,19.5,30.27,WNW,291,1.0,2.0,53,0.00,,,0.04,0,WeatherCatV1.20B785,2013-12-13 22:30:00,
2013-12-13 17:31:00,34.9,20.8,30.27,WNW,302,0.0,2.0,56,0.00,,,0.04,0,WeatherCatV1.20B785,2013-12-13 22:31:00,
2013-12-13 17:32:00,34.9,21.2,30.27,NW,310,0.0,2.0,57,0.00,,,0.04,0,WeatherCatV1.20B785,2013-12-13 22:32:00,
2013-12-13 17:33:00,34.7,20.2,30.27,NW,310,0.0,2.0,55,0.00,,,0.04,0,WeatherCatV1.20B785,2013-12-13 22:33:00,
2013-12-13 17:36:00,34.4,19.5,30.27,NW,307,0.0,3.0,54,0.00,,,0.04,0,WeatherCatV1.20B785,2013-12-13 22:36:00,
2013-12-13 17:37:00,34.3,19.4,30.27,NW,307,0.0,0.0,54,0.00,,,0.04,0,WeatherCatV1.20B785,2013-12-13 22:37:00,
2013-12-13 17:38:00,34.3,19.0,30.27,NW,306,1.0,1.0,53,0.00,,,0.04,0,WeatherCatV1.20B785,2013-12-13 22:38:00,
2013-12-13 17:41:00,34.0,20.0,30.27,NW,316,0.0,1.0,56,0.00,,,0.04,0,WeatherCatV1.20B785,2013-12-13 22:41:00,
2013-12-13 17:42:00,33.9,19.5,30.27,NW,316,0.0,0.0,55,0.00,,,0.04,0,WeatherCatV1.20B785,2013-12-13 22:42:00,
2013-12-13 17:43:00,33.8,19.4,30.27,NW,316,0.0,0.0,55,0.00,,,0.04,0,WeatherCatV1.20B785,2013-12-13 22:43:00,
2013-12-13 17:44:00,33.8,19.4,30.27,NW,316,1.0,1.0,55,0.00,,,0.04,0,WeatherCatV1.20B785,2013-12-13 22:44:00,
2013-12-13 17:47:00,33.6,20.4,30.27,NNW,327,0.0,2.0,58,0.00,,,0.04,0,WeatherCatV1.20B785,2013-12-13 22:47:00,
2013-12-13 17:48:00,33.6,20.4,30.27,NNW,327,0.0,2.0,58,0.00,,,0.04,0,WeatherCatV1.20B785,2013-12-13 22:48:00,
2013-12-13 17:49:00,33.5,19.9,30.27,NNW,327,2.0,2.0,57,0.00,,,0.04,0,WeatherCatV1.20B785,2013-12-13 22:49:00,
2013-12-13 17:54:00,33.1,20.0,30.27,NE,52,0.0,0.0,58,0.00,,,0.04,0,WeatherCatV1.20B785,2013-12-13 22:54:00,
2013-12-13 17:55:00,33.0,19.9,30.27,East,92,0.0,1.0,58,0.00,,,0.04,0,WeatherCatV1.20B785,2013-12-13 22:55:00,
2013-12-13 17:59:00,32.7,21.9,30.27,SSW,192,0.0,1.0,64,0.00,,,0.04,0,WeatherCatV1.20B785,2013-12-13 22:59:00,
2013-12-13 18:00:00,32.6,21.8,30.27,SSW,192,0.0,0.0,64,0.00,,,0.04,0,WeatherCatV1.20B785,2013-12-13 23:00:00,
2013-12-13 18:04:00,32.2,20.3,30.27,SSW,202,2.0,2.0,61,0.00,,,0.04,0,WeatherCatV1.20B785,2013-12-13 23:04:00,
2013-12-13 18:05:00,32.1,20.6,30.27,WSW,252,1.0,2.0,62,0.00,,,0.04,0,WeatherCatV1.20B785,2013-12-13 23:05:00,
2013-12-13 18:06:00,31.9,20.8,30.27,WSW,252,0.0,2.0,63,0.00,,,0.04,0,WeatherCatV1.20B785,2013-12-13 23:06:00,
2013-12-13 18:10:00,31.5,20.4,30.27,WSW,252,0.0,1.0,63,0.00,,,0.04,0,WeatherCatV1.20B785,2013-12-13 23:10:00,
2013-12-13 18:11:00,31.4,20.3,30.27,WNW,292,2.0,2.0,63,0.00,,,0.04,0,WeatherCatV1.20B785,2013-12-13 23:11:00,
2013-12-13 18:15:00,31.0,19.1,30.27,WNW,292,1.0,1.0,61,0.00,,,0.04,0,WeatherCatV1.20B785,2013-12-13 23:15:00,
2013-12-13 18:16:00,31.0,19.1,30.27,WNW,292,1.0,2.0,61,0.00,,,0.04,0,WeatherCatV1.20B785,2013-12-13 23:16:00,
2013-12-13 18:21:00,30.7,20.0,30.27,WNW,292,1.0,2.0,64,0.00,,,0.04,0,WeatherCatV1.20B785,2013-12-13 23:21:00,
2013-12-13 18:22:00,30.7,20.4,30.27,WNW,292,1.0,2.0,65,0.00,,,0.04,0,WeatherCatV1.20B785,2013-12-13 23:22:00,
2013-12-13 18:26:00,30.3,19.6,30.27,WNW,292,0.0,2.0,64,0.00,,,0.04,0,WeatherCatV1.20B785,2013-12-13 23:26:00,
2013-12-13 18:27:00,30.3,20.0,30.27,WNW,292,1.0,2.0,65,0.00,,,0.04,0,WeatherCatV1.20B785,2013-12-13 23:27:00,
2013-12-13 18:28:00,30.2,19.9,30.27,WNW,292,0.0,2.0,65,0.00,,,0.04,0,WeatherCatV1.20B785,2013-12-13 23:28:00,
2013-12-13 18:32:00,30.0,19.7,30.27,WNW,292,1.0,1.0,65,0.00,,,0.04,0,WeatherCatV1.20B785,2013-12-13 23:32:00,
2013-12-13 18:33:00,29.8,20.9,30.27,WNW,292,1.0,1.0,69,0.00,,,0.04,0,WeatherCatV1.20B785,2013-12-13 23:33:00,
2013-12-13 18:34:00,29.8,20.9,30.27,WNW,292,2.0,3.0,69,0.00,,,0.04,0,WeatherCatV1.20B785,2013-12-13 23:34:00,
2013-12-13 18:37:00,29.4,20.5,30.28,WNW,292,0.0,1.0,69,0.00,,,0.04,0,WeatherCatV1.20B785,2013-12-13 23:37:00,
2013-12-13 18:38:00,29.3,20.8,30.28,WNW,292,1.0,2.0,70,0.00,,,0.04,0,WeatherCatV1.20B785,2013-12-13 23:38:00,
2013-12-13 18:39:00,29.3,20.8,30.28,WNW,292,0.0,2.0,70,0.00,,,0.04,0,WeatherCatV1.20B785,2013-12-13 23:39:00,
2013-12-13 18:42:00,29.0,20.1,30.27,WNW,292,0.0,0.0,69,0.00,,,0.04,0,WeatherCatV1.20B785,2013-12-13 23:42:00,
2013-12-13 18:43:00,29.0,20.1,30.27,WNW,292,0.0,0.0,69,0.00,,,0.04,0,WeatherCatV1.20B785,2013-12-13 23:43:00,
2013-12-13 18:44:00,28.9,19.7,30.27,WNW,292,1.0,2.0,68,0.00,,,0.04,0,WeatherCatV1.20B785,2013-12-13 23:44:00,
2013-12-13 18:45:00,28.9,20.0,30.28,WNW,292,1.0,2.0,69,0.00,,,0.04,0,WeatherCatV1.20B785,2013-12-13 23:45:00,
2013-12-13 18:47:00,28.7,19.8,30.28,WNW,292,2.0,2.0,69,0.00,,,0.04,0,WeatherCatV1.20B785,2013-12-13 23:47:00,
2013-12-13 18:48:00,28.7,19.8,30.28,WNW,292,1.0,2.0,69,0.00,,,0.04,0,WeatherCatV1.20B785,2013-12-13 23:48:00,
2013-12-13 18:49:00,28.6,20.1,30.28,WNW,292,0.0,2.0,70,0.00,,,0.04,0,WeatherCatV1.20B785,2013-12-13 23:49:00,
2013-12-13 18:50:00,28.6,20.1,30.28,WNW,292,1.0,2.0,70,0.00,,,0.04,0,WeatherCatV1.20B785,2013-12-13 23:50:00,
2013-12-13 18:53:00,28.5,20.0,30.28,WNW,292,1.0,2.0,70,0.00,,,0.04,0,WeatherCatV1.20B785,2013-12-13 23:53:00,
2013-12-13 18:55:00,28.4,19.5,30.28,WNW,292,0.0,1.0,69,0.00,,,0.04,0,WeatherCatV1.20B785,2013-12-13 23:55:00,
2013-12-13 18:58:00,28.4,19.5,30.28,WNW,292,0.0,1.0,69,0.00,,,0.04,0,WeatherCatV1.20B785,2013-12-13 23:58:00,
2013-12-13 18:59:00,28.4,19.5,30.28,WNW,292,0.0,1.0,69,0.00,,,0.04,0,WeatherCatV1.20B785,2013-12-13 23:59:00,
2013-12-13 19:01:00,28.5,19.6,30.28,WNW,292,0.0,0.0,69,0.00,,,0.04,0,WeatherCatV1.20B785,2013-12-14 00:01:00,
2013-12-13 19:04:00,28.6,19.4,30.28,WNW,292,0.0,1.0,68,0.00,,,0.04,0,WeatherCatV1.20B785,2013-12-14 00:04:00,
2013-12-13 19:06:00,28.7,19.8,30.28,WNW,292,2.0,2.0,69,0.00,,,0.04,0,WeatherCatV1.20B785,2013-12-14 00:06:00,
2013-12-13 19:07:00,28.7,20.5,30.28,WNW,292,2.0,2.0,71,0.00,,,0.04,0,WeatherCatV1.20B785,2013-12-14 00:07:00,
2013-12-13 19:09:00,28.3,21.4,30.28,WNW,292,1.0,1.0,75,0.00,,,0.04,0,WeatherCatV1.20B785,2013-12-14 00:09:00,
2013-12-13 19:10:00,28.1,21.5,30.28,WNW,292,1.0,1.0,76,0.00,,,0.04,0,WeatherCatV1.20B785,2013-12-14 00:10:00,
2013-12-13 19:11:00,28.0,21.7,30.28,WNW,292,0.0,1.0,77,0.00,,,0.04,0,WeatherCatV1.20B785,2013-12-14 00:11:00,
2013-12-13 19:12:00,27.9,21.6,30.28,WNW,292,0.0,0.0,77,0.00,,,0.04,0,WeatherCatV1.20B785,2013-12-14 00:12:00,
2013-12-13 19:14:00,27.7,21.5,30.28,WNW,292,0.0,0.0,77,0.00,,,0.04,0,WeatherCatV1.20B785,2013-12-14 00:14:00,
2013-12-13 19:15:00,27.6,21.7,30.28,WNW,292,0.0,0.0,78,0.00,,,0.04,0,WeatherCatV1.20B785,2013-12-14 00:15:00,
2013-12-13 19:16:00,27.6,21.7,30.28,WNW,292,0.0,0.0,78,0.00,,,0.04,0,WeatherCatV1.20B785,2013-12-14 00:16:00,
2013-12-13 19:17:00,27.6,21.7,30.28,WNW,292,0.0,0.0,78,0.00,,,0.04,0,WeatherCatV1.20B785,2013-12-14 00:17:00,
2013-12-13 19:18:00,27.5,21.6,30.28,WNW,292,1.0,1.0,78,0.00,,,0.04,0,WeatherCatV1.20B785,2013-12-14 00:18:00,
2013-12-13 19:19:00,27.4,21.5,30.28,WNW,292,1.0,2.0,78,0.00,,,0.04,0,WeatherCatV1.20B785,2013-12-14 00:19:00,
2013-12-13 19:21:00,27.3,21.4,30.28,WNW,292,2.0,2.0,78,0.00,,,0.04,0,WeatherCatV1.20B785,2013-12-14 00:21:00,
2013-12-13 19:22:00,27.3,21.4,30.28,WNW,292,1.0,2.0,78,0.00,,,0.04,0,WeatherCatV1.20B785,2013-12-14 00:22:00,
2013-12-13 19:23:00,27.1,21.2,30.28,WNW,292,0.0,2.0,78,0.00,,,0.04,0,WeatherCatV1.20B785,2013-12-14 00:23:00,
2013-12-13 19:25:00,27.1,21.2,30.28,WNW,292,1.0,1.0,78,0.00,,,0.04,0,WeatherCatV1.20B785,2013-12-14 00:25:00,
2013-12-13 19:26:00,27.0,21.1,30.28,WNW,292,1.0,2.0,78,0.00,,,0.04,0,WeatherCatV1.20B785,2013-12-14 00:26:00,
2013-12-13 19:27:00,26.9,21.0,30.28,WNW,287,1.0,2.0,78,0.00,,,0.04,0,WeatherCatV1.20B785,2013-12-14 00:27:00,
2013-12-13 19:28:00,26.9,21.0,30.28,WNW,287,2.0,2.0,78,0.00,,,0.04,0,WeatherCatV1.20B785,2013-12-14 00:28:00,
2013-12-13 19:29:00,26.8,20.9,30.28,WNW,287,1.0,2.0,78,0.00,,,0.04,0,WeatherCatV1.20B785,2013-12-14 00:29:00,
2013-12-13 19:30:00,26.8,21.2,30.28,WNW,287,1.0,2.0,79,0.00,,,0.04,0,WeatherCatV1.20B785,2013-12-14 00:30:00,
2013-12-13 19:31:00,26.7,21.1,30.28,WNW,287,1.0,2.0,79,0.00,,,0.04,0,WeatherCatV1.20B785,2013-12-14 00:31:00,
2013-12-13 19:32:00,26.6,20.7,30.28,WNW,287,1.0,2.0,78,0.00,,,0.04,0,WeatherCatV1.20B785,2013-12-14 00:32:00,
2013-12-13 19:33:00,26.6,20.4,30.28,WNW,287,1.0,2.0,77,0.00,,,0.04,0,WeatherCatV1.20B785,2013-12-14 00:33:00,
2013-12-13 19:34:00,26.7,20.5,30.28,WNW,287,1.0,2.0,77,0.00,,,0.04,0,WeatherCatV1.20B785,2013-12-14 00:34:00,
2013-12-13 19:35:00,26.7,20.5,30.28,WNW,287,1.0,1.0,77,0.00,,,0.04,0,WeatherCatV1.20B785,2013-12-14 00:35:00,
2013-12-13 19:36:00,26.7,20.5,30.28,WNW,287,1.0,1.0,77,0.00,,,0.04,0,WeatherCatV1.20B785,2013-12-14 00:36:00,
2013-12-13 19:37:00,26.7,20.5,30.28,WNW,287,0.0,0.0,77,0.00,,,0.04,0,WeatherCatV1.20B785,2013-12-14 00:37:00,
2013-12-13 19:38:00,26.8,20.6,30.28,WNW,287,0.0,0.0,77,0.00,,,0.04,0,WeatherCatV1.20B785,2013-12-14 00:38:00,
2013-12-13 19:39:00,26.8,20.6,30.28,WNW,287,0.0,0.0,77,0.00,,,0.04,0,WeatherCatV1.20B785,2013-12-14 00:39:00,
2013-12-13 19:40:00,26.8,20.3,30.28,WNW,287,0.0,0.0,76,0.00,,,0.04,0,WeatherCatV1.20B785,2013-12-14 00:40:00,
2013-12-13 19:41:00,26.8,20.3,30.28,WNW,287,1.0,2.0,76,0.00,,,0.04,0,WeatherCatV1.20B785,2013-12-14 00:41:00,
2013-12-13 19:42:00,26.8,20.3,30.28,WNW,287,0.0,2.0,76,0.00,,,0.04,0,WeatherCatV1.20B785,2013-12-14 00:42:00,
2013-12-13 19:43:00,26.8,20.3,30.28,WNW,287,0.0,0.0,76,0.00,,,0.04,0,WeatherCatV1.20B785,2013-12-14 00:43:00,
2013-12-13 19:45:00,26.8,20.3,30.28,WNW,287,0.0,0.0,76,0.00,,,0.04,0,WeatherCatV1.20B785,2013-12-14 00:45:00,
2013-12-13 19:46:00,26.9,20.0,30.28,WNW,287,0.0,0.0,75,0.00,,,0.04,0,WeatherCatV1.20B785,2013-12-14 00:46:00,
2013-12-13 19:48:00,26.9,20.4,30.28,WNW,287,0.0,0.0,76,0.00,,,0.04,0,WeatherCatV1.20B785,2013-12-14 00:48:00,
2013-12-13 19:49:00,26.9,20.4,30.28,WNW,287,0.0,0.0,76,0.00,,,0.04,0,WeatherCatV1.20B785,2013-12-14 00:49:00,
2013-12-13 19:50:00,26.9,20.4,30.28,WNW,287,0.0,0.0,76,0.00,,,0.04,0,WeatherCatV1.20B785,2013-12-14 00:50:00,
2013-12-13 19:51:00,26.9,20.4,30.28,WNW,287,0.0,0.0,76,0.00,,,0.04,0,WeatherCatV1.20B785,2013-12-14 00:51:00,
2013-12-13 19:52:00,26.9,20.4,30.28,WNW,287,0.0,0.0,76,0.00,,,0.04,0,WeatherCatV1.20B785,2013-12-14 00:52:00,
2013-12-13 19:53:00,27.0,20.5,30.28,WNW,287,1.0,1.0,76,0.00,,,0.04,0,WeatherCatV1.20B785,2013-12-14 00:53:00,
2013-12-13 19:54:00,27.0,20.5,30.28,WNW,287,0.0,1.0,76,0.00,,,0.04,0,WeatherCatV1.20B785,2013-12-14 00:54:00,
2013-12-13 19:56:00,27.1,20.6,30.28,WNW,287,1.0,1.0,76,0.00,,,0.04,0,WeatherCatV1.20B785,2013-12-14 00:56:00,
2013-12-13 19:58:00,27.2,20.7,30.28,WNW,287,1.0,2.0,76,0.00,,,0.04,0,WeatherCatV1.20B785,2013-12-14 00:58:00,
2013-12-13 19:59:00,27.2,20.3,30.29,WNW,287,1.0,2.0,75,0.00,,,0.04,0,WeatherCatV1.20B785,2013-12-14 00:59:00,
2013-12-13 20:01:00,27.3,20.8,30.29,WNW,287,1.0,1.0,76,0.00,,,0.04,0,WeatherCatV1.20B785,2013-12-14 01:01:00,
2013-12-13 20:02:00,27.3,20.8,30.29,WNW,287,0.0,1.0,76,0.00,,,0.04,0,WeatherCatV1.20B785,2013-12-14 01:02:00,
2013-12-13 20:03:00,27.4,20.9,30.29,WNW,287,0.0,0.0,76,0.00,,,0.04,0,WeatherCatV1.20B785,2013-12-14 01:03:00,
2013-12-13 20:04:00,27.4,20.9,30.29,WNW,287,0.0,0.0,76,0.00,,,0.04,0,WeatherCatV1.20B785,2013-12-14 01:04:00,
2013-12-13 20:05:00,27.4,20.9,30.29,WNW,287,0.0,0.0,76,0.00,,,0.04,0,WeatherCatV1.20B785,2013-12-14 01:05:00,
2013-12-13 20:07:00,27.4,21.2,30.29,WNW,287,0.0,0.0,77,0.00,,,0.04,0,WeatherCatV1.20B785,2013-12-14 01:07:00,
2013-12-13 20:11:00,27.5,22.5,30.29,WNW,287,0.0,0.0,81,0.00,,,0.04,0,WeatherCatV1.20B785,2013-12-14 01:11:00,
2013-12-13 20:12:00,27.5,22.5,30.29,WNW,287,0.0,0.0,81,0.00,,,0.04,0,WeatherCatV1.20B785,2013-12-14 01:12:00,
2013-12-13 20:13:00,27.5,22.5,30.29,WNW,287,0.0,0.0,81,0.00,,,0.04,0,WeatherCatV1.20B785,2013-12-14 01:13:00,
2013-12-13 20:16:00,27.5,22.7,30.29,WNW,287,0.0,0.0,82,0.00,,,0.04,0,WeatherCatV1.20B785,2013-12-14 01:16:00,
2013-12-13 20:17:00,27.5,22.7,30.29,WNW,287,0.0,0.0,82,0.00,,,0.04,0,WeatherCatV1.20B785,2013-12-14 01:17:00,
2013-12-13 20:18:00,27.5,22.7,30.29,WNW,287,0.0,0.0,82,0.00,,,0.04,0,WeatherCatV1.20B785,2013-12-14 01:18:00,
2013-12-13 20:21:00,27.5,22.5,30.29,WNW,287,0.0,0.0,81,0.00,,,0.04,0,WeatherCatV1.20B785,2013-12-14 01:21:00,
2013-12-13 20:22:00,27.5,22.2,30.29,WNW,287,0.0,0.0,80,0.00,,,0.04,0,WeatherCatV1.20B785,2013-12-14 01:22:00,
2013-12-13 20:23:00,27.5,22.2,30.29,WNW,287,0.0,0.0,80,0.00,,,0.04,0,WeatherCatV1.20B785,2013-12-14 01:23:00,
2013-12-13 20:25:00,27.6,22.0,30.29,WNW,287,0.0,0.0,79,0.00,,,0.04,0,WeatherCatV1.20B785,2013-12-14 01:25:00,
2013-12-13 20:26:00,27.6,22.0,30.28,WNW,287,0.0,0.0,79,0.00,,,0.04,0,WeatherCatV1.20B785,2013-12-14 01:26:00,
2013-12-13 20:28:00,27.7,21.8,30.28,WNW,287,0.0,0.0,78,0.00,,,0.04,0,WeatherCatV1.20B785,2013-12-14 01:28:00,
2013-12-13 20:29:00,27.7,21.8,30.28,WNW,287,0.0,0.0,78,0.00,,,0.04,0,WeatherCatV1.20B785,2013-12-14 01:29:00,
2013-12-13 20:31:00,27.8,21.5,30.28,WNW,287,0.0,0.0,77,0.00,,,0.04,0,WeatherCatV1.20B785,2013-12-14 01:31:00,
2013-12-13 20:32:00,27.9,21.6,30.29,WNW,287,0.0,0.0,77,0.00,,,0.04,0,WeatherCatV1.20B785,2013-12-14 01:32:00,
2013-12-13 20:33:00,28.0,22.0,30.29,WNW,287,0.0,0.0,78,0.00,,,0.04,0,WeatherCatV1.20B785,2013-12-14 01:33:00,
2013-12-13 20:34:00,28.0,22.4,30.29,WNW,287,0.0,0.0,79,0.00,,,0.04,0,WeatherCatV1.20B785,2013-12-14 01:34:00,
2013-12-13 20:35:00,28.0,22.4,30.29,WNW,287,0.0,0.0,79,0.00,,,0.04,0,WeatherCatV1.20B785,2013-12-14 01:35:00,
2013-12-13 20:36:00,28.1,22.4,30.29,WNW,287,0.0,0.0,79,0.00,,,0.04,0,WeatherCatV1.20B785,2013-12-14 01:36:00,
2013-12-13 20:38:00,28.1,22.1,30.28,WNW,287,0.0,1.0,78,0.00,,,0.04,0,WeatherCatV1.20B785,2013-12-14 01:38:00,
2013-12-13 20:39:00,28.2,22.2,30.29,WNW,287,0.0,1.0,78,0.00,,,0.04,0,WeatherCatV1.20B785,2013-12-14 01:39:00,
2013-12-13 20:42:00,28.3,22.6,30.29,WNW,287,0.0,0.0,79,0.00,,,0.04,0,WeatherCatV1.20B785,2013-12-14 01:42:00,
2013-12-13 20:43:00,28.3,22.6,30.29,WNW,287,0.0,0.0,79,0.00,,,0.04,0,WeatherCatV1.20B785,2013-12-14 01:43:00,
2013-12-13 20:44:00,28.3,22.9,30.29,WNW,287,0.0,0.0,80,0.00,,,0.04,0,WeatherCatV1.20B785,2013-12-14 01:44:00,
2013-12-13 20:47:00,28.3,23.2,30.29,WNW,287,0.0,0.0,81,0.00,,,0.04,0,WeatherCatV1.20B785,2013-12-14 01:47:00,
2013-12-13 20:48:00,28.3,23.2,30.29,WNW,287,0.0,0.0,81,0.00,,,0.04,0,WeatherCatV1.20B785,2013-12-14 01:48:00,
2013-12-13 20:49:00,28.3,23.2,30.29,WNW,287,0.0,0.0,81,0.00,,,0.04,0,WeatherCatV1.20B785,2013-12-14 01:49:00,
2013-12-13 20:52:00,28.2,23.1,30.30,WNW,287,0.0,0.0,81,0.00,,,0.04,0,WeatherCatV1.20B785,2013-12-14 01:52:00,
2013-12-13 20:53:00,28.2,23.1,30.29,WNW,287,0.0,0.0,81,0.00,,,0.04,0,WeatherCatV1.20B785,2013-12-14 01:53:00,
2013-12-13 20:54:00,28.1,23.0,30.30,WNW,287,0.0,0.0,81,0.00,,,0.04,0,WeatherCatV1.20B785,2013-12-14 01:54:00,
2013-12-13 20:55:00,28.1,22.7,30.30,WNW,287,0.0,0.0,80,0.00,,,0.04,0,WeatherCatV1.20B785,2013-12-14 01:55:00,
2013-12-13 20:58:00,27.9,22.5,30.30,WNW,287,0.0,0.0,80,0.00,,,0.04,0,WeatherCatV1.20B785,2013-12-14 01:58:00,
2013-12-13 20:59:00,27.9,22.5,30.30,WNW,287,0.0,0.0,80,0.00,,,0.04,0,WeatherCatV1.20B785,2013-12-14 01:59:00,
2013-12-13 21:00:00,27.9,22.5,30.30,WNW,287,0.0,0.0,80,0.00,,,0.04,0,WeatherCatV1.20B785,2013-12-14 02:00:00,
2013-12-13 21:01:00,27.8,22.5,30.30,WNW,287,0.0,0.0,80,0.00,,,0.04,0,WeatherCatV1.20B785,2013-12-14 02:01:00,
2013-12-13 21:02:00,27.8,22.5,30.30,WNW,287,0.0,0.0,80,0.00,,,0.04,0,WeatherCatV1.20B785,2013-12-14 02:02:00,
2013-12-13 21:03:00,27.8,22.5,30.30,WNW,287,0.0,0.0,80,0.00,,,0.04,0,WeatherCatV1.20B785,2013-12-14 02:03:00,
2013-12-13 21:04:00,27.8,22.5,30.30,WNW,287,0.0,0.0,80,0.00,,,0.04,0,WeatherCatV1.20B785,2013-12-14 02:04:00,
2013-12-13 21:05:00,27.7,22.4,30.30,WNW,287,0.0,0.0,80,0.00,,,0.04,0,WeatherCatV1.20B785,2013-12-14 02:05:00,
2013-12-13 21:06:00,27.7,22.4,30.30,WNW,287,0.0,0.0,80,0.00,,,0.04,0,WeatherCatV1.20B785,2013-12-14 02:06:00,
2013-12-13 21:07:00,27.7,22.4,30.30,WNW,287,0.0,0.0,80,0.00,,,0.04,0,WeatherCatV1.20B785,2013-12-14 02:07:00,
2013-12-13 21:09:00,27.7,22.4,30.30,WNW,287,0.0,0.0,80,0.00,,,0.04,0,WeatherCatV1.20B785,2013-12-14 02:09:00,
2013-12-13 21:10:00,27.7,22.4,30.30,WNW,287,1.0,1.0,80,0.00,,,0.04,0,WeatherCatV1.20B785,2013-12-14 02:10:00,
2013-12-13 21:11:00,27.6,22.5,30.30,WNW,287,1.0,1.0,81,0.00,,,0.04,0,WeatherCatV1.20B785,2013-12-14 02:11:00,
2013-12-13 21:12:00,27.6,22.5,30.30,WNW,287,0.0,1.0,81,0.00,,,0.04,0,WeatherCatV1.20B785,2013-12-14 02:12:00,
2013-12-13 21:14:00,27.6,22.8,30.30,WNW,287,0.0,2.0,82,0.00,,,0.04,0,WeatherCatV1.20B785,2013-12-14 02:14:00,
2013-12-13 21:15:00,27.6,22.8,30.30,WNW,287,0.0,2.0,82,0.00,,,0.04,0,WeatherCatV1.20B785,2013-12-14 02:15:00,
2013-12-13 21:16:00,27.6,23.1,30.31,WNW,287,0.0,1.0,83,0.00,,,0.04,0,WeatherCatV1.20B785,2013-12-14 02:16:00,
2013-12-13 21:18:00,27.6,23.1,30.31,WNW,287,0.0,1.0,83,0.00,,,0.04,0,WeatherCatV1.20B785,2013-12-14 02:18:00,
2013-12-13 21:20:00,27.6,23.1,30.31,WNW,287,0.0,0.0,83,0.00,,,0.04,0,WeatherCatV1.20B785,2013-12-14 02:20:00,
2013-12-13 21:21:00,27.6,22.8,30.31,WNW,287,0.0,1.0,82,0.00,,,0.04,0,WeatherCatV1.20B785,2013-12-14 02:21:00,
2013-12-13 21:23:00,27.6,22.8,30.31,WNW,287,0.0,0.0,82,0.00,,,0.04,0,WeatherCatV1.20B785,2013-12-14 02:23:00,
2013-12-13 21:25:00,27.6,22.8,30.31,WNW,287,0.0,0.0,82,0.00,,,0.04,0,WeatherCatV1.20B785,2013-12-14 02:25:00,
2013-12-13 21:26:00,27.6,22.8,30.31,WNW,287,0.0,0.0,82,0.00,,,0.04,0,WeatherCatV1.20B785,2013-12-14 02:26:00,
2013-12-13 21:27:00,27.7,22.9,30.31,WNW,287,0.0,0.0,82,0.00,,,0.04,0,WeatherCatV1.20B785,2013-12-14 02:27:00,
2013-12-13 21:28:00,27.7,22.6,30.31,WNW,287,0.0,0.0,81,0.00,,,0.04,0,WeatherCatV1.20B785,2013-12-14 02:28:00,
2013-12-13 21:29:00,27.7,22.6,30.31,WNW,287,1.0,1.0,81,0.00,,,0.04,0,WeatherCatV1.20B785,2013-12-14 02:29:00,
2013-12-13 21:30:00,27.8,22.5,30.31,WNW,287,1.0,2.0,80,0.00,,,0.04,0,WeatherCatV1.20B785,2013-12-14 02:30:00,
2013-12-13 21:32:00,27.9,22.5,30.31,WSW,258,1.0,2.0,80,0.00,,,0.04,0,WeatherCatV1.20B785,2013-12-14 02:32:00,
2013-12-13 21:34:00,28.0,22.4,30.31,WSW,258,1.0,1.0,79,0.00,,,0.04,0,WeatherCatV1.20B785,2013-12-14 02:34:00,
2013-12-13 21:35:00,28.1,22.1,30.31,WSW,258,0.0,1.0,78,0.00,,,0.04,0,WeatherCatV1.20B785,2013-12-14 02:35:00,
2013-12-13 21:37:00,28.3,22.6,30.31,WSW,258,0.0,0.0,79,0.00,,,0.04,0,WeatherCatV1.20B785,2013-12-14 02:37:00,
2013-12-13 21:40:00,28.4,22.4,30.31,WSW,258,0.0,0.0,78,0.00,,,0.04,0,WeatherCatV1.20B785,2013-12-14 02:40:00,
2013-12-13 21:41:00,28.5,22.5,30.31,WSW,258,0.0,0.0,78,0.00,,,0.04,0,WeatherCatV1.20B785,2013-12-14 02:41:00,
2013-12-13 21:42:00,28.5,22.5,30.31,WSW,258,0.0,0.0,78,0.00,,,0.04,0,WeatherCatV1.20B785,2013-12-14 02:42:00,
2013-12-13 21:43:00,28.5,22.2,30.31,WSW,258,0.0,0.0,77,0.00,,,0.04,0,WeatherCatV1.20B785,2013-12-14 02:43:00,
2013-12-13 21:45:00,28.5,21.9,30.31,WSW,258,0.0,0.0,76,0.00,,,0.04,0,WeatherCatV1.20B785,2013-12-14 02:45:00,
2013-12-13 21:46:00,28.5,22.2,30.31,WSW,258,0.0,0.0,77,0.00,,,0.04,0,WeatherCatV1.20B785,2013-12-14 02:46:00,
2013-12-13 21:47:00,28.6,22.3,30.31,WSW,258,0.0,0.0,77,0.00,,,0.04,0,WeatherCatV1.20B785,2013-12-14 02:47:00,
2013-12-13 21:48:00,28.6,22.3,30.31,WSW,258,0.0,0.0,77,0.00,,,0.04,0,WeatherCatV1.20B785,2013-12-14 02:48:00,
2013-12-13 21:51:00,28.7,22.1,30.31,WSW,258,0.0,0.0,76,0.00,,,0.04,0,WeatherCatV1.20B785,2013-12-14 02:51:00,
2013-12-13 21:53:00,28.8,22.2,30.31,WSW,258,0.0,0.0,76,0.00,,,0.04,0,WeatherCatV1.20B785,2013-12-14 02:53:00,
2013-12-13 21:54:00,28.8,21.9,30.31,WSW,258,0.0,0.0,75,0.00,,,0.04,0,WeatherCatV1.20B785,2013-12-14 02:54:00,
2013-12-13 21:57:00,28.9,22.0,30.31,WSW,258,0.0,0.0,75,0.00,,,0.04,0,WeatherCatV1.20B785,2013-12-14 02:57:00,
2013-12-13 21:58:00,28.9,22.0,30.31,WSW,258,0.0,0.0,75,0.00,,,0.04,0,WeatherCatV1.20B785,2013-12-14 02:58:00,
2013-12-13 21:59:00,28.9,22.0,30.31,WSW,258,0.0,0.0,75,0.00,,,0.04,0,WeatherCatV1.20B785,2013-12-14 02:59:00,
2013-12-13 22:02:00,28.9,22.3,30.31,WSW,258,0.0,0.0,76,0.00,,,0.04,0,WeatherCatV1.20B785,2013-12-14 03:02:00,
2013-12-13 22:03:00,29.0,22.4,30.31,WSW,258,0.0,0.0,76,0.00,,,0.04,0,WeatherCatV1.20B785,2013-12-14 03:03:00,
2013-12-13 22:04:00,29.0,22.1,30.31,WSW,258,0.0,0.0,75,0.00,,,0.04,0,WeatherCatV1.20B785,2013-12-14 03:04:00,
2013-12-13 22:07:00,29.0,22.1,30.31,WSW,258,0.0,0.0,75,0.00,,,0.04,0,WeatherCatV1.20B785,2013-12-14 03:07:00,
2013-12-13 22:08:00,29.0,22.1,30.31,WSW,258,0.0,0.0,75,0.00,,,0.04,0,WeatherCatV1.20B785,2013-12-14 03:08:00,
2013-12-13 22:09:00,29.0,22.1,30.31,WSW,258,0.0,0.0,75,0.00,,,0.04,0,WeatherCatV1.20B785,2013-12-14 03:09:00,
2013-12-13 22:12:00,29.0,22.1,30.31,WSW,258,0.0,0.0,75,0.00,,,0.04,0,WeatherCatV1.20B785,2013-12-14 03:12:00,
2013-12-13 22:13:00,29.0,22.4,30.31,WSW,258,0.0,0.0,76,0.00,,,0.04,0,WeatherCatV1.20B785,2013-12-14 03:13:00,
2013-12-13 22:14:00,29.0,22.7,30.31,WSW,258,0.0,0.0,77,0.00,,,0.04,0,WeatherCatV1.20B785,2013-12-14 03:14:00,
2013-12-13 22:18:00,28.9,23.8,30.32,WSW,258,0.0,0.0,81,0.00,,,0.04,0,WeatherCatV1.20B785,2013-12-14 03:18:00,
2013-12-13 22:19:00,28.9,23.8,30.32,WSW,258,0.0,0.0,81,0.00,,,0.04,0,WeatherCatV1.20B785,2013-12-14 03:19:00,
2013-12-13 22:20:00,28.9,23.8,30.32,WSW,258,0.0,0.0,81,0.00,,,0.04,0,WeatherCatV1.20B785,2013-12-14 03:20:00,
2013-12-13 22:23:00,28.8,23.4,30.32,WSW,258,0.0,0.0,80,0.00,,,0.04,0,WeatherCatV1.20B785,2013-12-14 03:23:00,
2013-12-13 22:24:00,28.8,23.1,30.32,WSW,258,0.0,0.0,79,0.00,,,0.04,0,WeatherCatV1.20B785,2013-12-14 03:24:00,
2013-12-13 22:25:00,28.8,23.1,30.32,WSW,258,0.0,0.0,79,0.00,,,0.04,0,WeatherCatV1.20B785,2013-12-14 03:25:00,
2013-12-13 22:26:00,28.7,22.7,30.32,WSW,258,0.0,0.0,78,0.00,,,0.04,0,WeatherCatV1.20B785,2013-12-14 03:26:00,
2013-12-13 22:29:00,28.7,22.7,30.32,WSW,258,0.0,0.0,78,0.00,,,0.04,0,WeatherCatV1.20B785,2013-12-14 03:29:00,
2013-12-13 22:30:00,28.7,22.7,30.32,WSW,258,0.0,0.0,78,0.00,,,0.04,0,WeatherCatV1.20B785,2013-12-14 03:30:00,
2013-12-13 22:31:00,28.7,22.7,30.32,WSW,258,0.0,0.0,78,0.00,,,0.04,0,WeatherCatV1.20B785,2013-12-14 03:31:00,
2013-12-13 22:33:00,28.6,22.6,30.32,WSW,258,0.0,0.0,78,0.00,,,0.04,0,WeatherCatV1.20B785,2013-12-14 03:33:00,
2013-12-13 22:34:00,28.6,22.3,30.32,WSW,258,0.0,0.0,77,0.00,,,0.04,0,WeatherCatV1.20B785,2013-12-14 03:34:00,
2013-12-13 22:35:00,28.6,22.3,30.32,WSW,258,0.0,1.0,77,0.00,,,0.04,0,WeatherCatV1.20B785,2013-12-14 03:35:00,
2013-12-13 22:37:00,28.6,22.0,30.31,WSW,258,0.0,0.0,76,0.00,,,0.04,0,WeatherCatV1.20B785,2013-12-14 03:37:00,
2013-12-13 22:38:00,28.6,22.0,30.31,WSW,258,0.0,1.0,76,0.00,,,0.04,0,WeatherCatV1.20B785,2013-12-14 03:38:00,
2013-12-13 22:39:00,28.6,22.3,30.32,WSW,258,0.0,1.0,77,0.00,,,0.04,0,WeatherCatV1.20B785,2013-12-14 03:39:00,
2013-12-13 22:40:00,28.6,22.3,30.32,WSW,258,0.0,1.0,77,0.00,,,0.04,0,WeatherCatV1.20B785,2013-12-14 03:40:00,
2013-12-13 22:42:00,28.6,22.3,30.32,WSW,258,0.0,1.0,77,0.00,,,0.04,0,WeatherCatV1.20B785,2013-12-14 03:42:00,
2013-12-13 22:44:00,28.5,22.2,30.32,WSW,258,0.0,0.0,77,0.00,,,0.04,0,WeatherCatV1.20B785,2013-12-14 03:44:00,
2013-12-13 22:45:00,28.6,22.3,30.32,WSW,258,0.0,0.0,77,0.00,,,0.04,0,WeatherCatV1.20B785,2013-12-14 03:45:00,
2013-12-13 22:46:00,28.6,22.3,30.32,WSW,258,0.0,0.0,77,0.00,,,0.04,0,WeatherCatV1.20B785,2013-12-14 03:46:00,
2013-12-13 22:48:00,28.6,22.0,30.31,WSW,258,0.0,0.0,76,0.00,,,0.04,0,WeatherCatV1.20B785,2013-12-14 03:48:00,
2013-12-13 22:49:00,28.6,22.0,30.31,WSW,258,0.0,0.0,76,0.00,,,0.04,0,WeatherCatV1.20B785,2013-12-14 03:49:00,
2013-12-13 22:50:00,28.6,22.0,30.31,WSW,258,0.0,0.0,76,0.00,,,0.04,0,WeatherCatV1.20B785,2013-12-14 03:50:00,
2013-12-13 22:51:00,28.6,22.0,30.31,WSW,258,0.0,0.0,76,0.00,,,0.04,0,WeatherCatV1.20B785,2013-12-14 03:51:00,
2013-12-13 22:54:00,28.6,22.0,30.31,WSW,258,0.0,0.0,76,0.00,,,0.04,0,WeatherCatV1.20B785,2013-12-14 03:54:00,
2013-12-13 22:55:00,28.5,21.9,30.31,WSW,258,0.0,0.0,76,0.00,,,0.04,0,WeatherCatV1.20B785,2013-12-14 03:55:00,
2013-12-13 22:56:00,28.5,21.9,30.31,WSW,258,0.0,0.0,76,0.00,,,0.04,0,WeatherCatV1.20B785,2013-12-14 03:56:00,
2013-12-13 22:58:00,28.5,22.2,30.31,WSW,258,0.0,0.0,77,0.00,,,0.04,0,WeatherCatV1.20B785,2013-12-14 03:58:00,
2013-12-13 22:59:00,28.5,22.2,30.31,WSW,258,0.0,0.0,77,0.00,,,0.04,0,WeatherCatV1.20B785,2013-12-14 03:59:00,
2013-12-13 23:00:00,28.5,22.2,30.31,WSW,258,0.0,0.0,77,0.00,,,0.04,0,WeatherCatV1.20B785,2013-12-14 04:00:00,
2013-12-13 23:01:00,28.5,21.9,30.31,WSW,258,0.0,0.0,76,0.00,,,0.04,0,WeatherCatV1.20B785,2013-12-14 04:01:00,
2013-12-13 23:04:00,28.4,21.8,30.31,West,259,1.0,1.0,76,0.00,,,0.04,0,WeatherCatV1.20B785,2013-12-14 04:04:00,
2013-12-13 23:05:00,28.4,22.1,30.31,West,259,1.0,1.0,77,0.00,,,0.04,0,WeatherCatV1.20B785,2013-12-14 04:05:00,
2013-12-13 23:06:00,28.4,22.1,30.32,West,261,0.0,2.0,77,0.00,,,0.04,0,WeatherCatV1.20B785,2013-12-14 04:06:00,
2013-12-13 23:07:00,28.4,22.4,30.31,West,261,0.0,2.0,78,0.00,,,0.04,0,WeatherCatV1.20B785,2013-12-14 04:07:00,
2013-12-13 23:09:00,28.4,22.7,30.32,West,261,0.0,0.0,79,0.00,,,0.04,0,WeatherCatV1.20B785,2013-12-14 04:09:00,
2013-12-13 23:12:00,28.4,23.0,30.32,West,261,0.0,0.0,80,0.00,,,0.04,0,WeatherCatV1.20B785,2013-12-14 04:12:00,
2013-12-13 23:13:00,28.4,23.0,30.32,West,261,0.0,0.0,80,0.00,,,0.04,0,WeatherCatV1.20B785,2013-12-14 04:13:00,
2013-12-13 23:15:00,28.3,22.9,30.32,SW,229,0.0,0.0,80,0.00,,,0.04,0,WeatherCatV1.20B785,2013-12-14 04:15:00,
2013-12-13 23:17:00,28.3,23.5,30.32,SSW,212,0.0,0.0,82,0.00,,,0.04,0,WeatherCatV1.20B785,2013-12-14 04:17:00,
2013-12-13 23:18:00,28.3,23.5,30.32,SSW,212,0.0,0.0,82,0.00,,,0.04,0,WeatherCatV1.20B785,2013-12-14 04:18:00,
2013-12-13 23:20:00,28.2,23.4,30.32,SSW,212,0.0,0.0,82,0.00,,,0.04,0,WeatherCatV1.20B785,2013-12-14 04:20:00,
2013-12-13 23:22:00,28.1,23.3,30.32,SSW,212,0.0,0.0,82,0.00,,,0.04,0,WeatherCatV1.20B785,2013-12-14 04:22:00,
2013-12-13 23:23:00,28.1,23.3,30.32,SSW,212,0.0,0.0,82,0.00,,,0.04,0,WeatherCatV1.20B785,2013-12-14 04:23:00,
2013-12-13 23:24:00,28.1,23.3,30.32,SSW,212,0.0,0.0,82,0.00,,,0.04,0,WeatherCatV1.20B785,2013-12-14 04:24:00,
2013-12-13 23:25:00,28.1,23.3,30.32,SSW,212,0.0,0.0,82,0.00,,,0.04,0,WeatherCatV1.20B785,2013-12-14 04:25:00,
2013-12-13 23:27:00,28.1,23.3,30.31,SSW,212,0.0,0.0,82,0.00,,,0.04,0,WeatherCatV1.20B785,2013-12-14 04:27:00,
2013-12-13 23:29:00,28.0,23.2,30.31,SSW,212,0.0,0.0,82,0.00,,,0.04,0,WeatherCatV1.20B785,2013-12-14 04:29:00,
2013-12-13 23:30:00,28.0,23.2,30.31,SSW,212,0.0,0.0,82,0.00,,,0.04,0,WeatherCatV1.20B785,2013-12-14 04:30:00,
2013-12-13 23:32:00,27.9,23.1,30.31,SSW,212,0.0,0.0,82,0.00,,,0.04,0,WeatherCatV1.20B785,2013-12-14 04:32:00,
2013-12-13 23:34:00,27.9,23.1,30.31,SSW,212,0.0,0.0,82,0.00,,,0.04,0,WeatherCatV1.20B785,2013-12-14 04:34:00,
2013-12-13 23:35:00,27.9,23.1,30.31,SSW,212,0.0,0.0,82,0.00,,,0.04,0,WeatherCatV1.20B785,2013-12-14 04:35:00,
2013-12-13 23:36:00,27.9,23.1,30.31,SSW,212,0.0,0.0,82,0.00,,,0.04,0,WeatherCatV1.20B785,2013-12-14 04:36:00,
2013-12-13 23:38:00,27.9,23.1,30.31,SSW,212,0.0,0.0,82,0.00,,,0.04,0,WeatherCatV1.20B785,2013-12-14 04:38:00,
2013-12-13 23:39:00,27.8,23.0,30.31,SSW,212,0.0,0.0,82,0.00,,,0.04,0,WeatherCatV1.20B785,2013-12-14 04:39:00,
2013-12-13 23:40:00,27.8,23.0,30.31,SSW,212,0.0,0.0,82,0.00,,,0.04,0,WeatherCatV1.20B785,2013-12-14 04:40:00,
2013-12-13 23:41:00,27.8,23.0,30.31,SSW,212,0.0,0.0,82,0.00,,,0.04,0,WeatherCatV1.20B785,2013-12-14 04:41:00,
2013-12-13 23:42:00,27.8,23.0,30.31,SSW,212,0.0,0.0,82,0.00,,,0.04,0,WeatherCatV1.20B785,2013-12-14 04:42:00,
2013-12-13 23:43:00,27.8,23.3,30.31,SSW,212,0.0,0.0,83,0.00,,,0.04,0,WeatherCatV1.20B785,2013-12-14 04:43:00,
2013-12-13 23:44:00,27.8,23.3,30.31,SSW,212,0.0,0.0,83,0.00,,,0.04,0,WeatherCatV1.20B785,2013-12-14 04:44:00,
2013-12-13 23:45:00,27.8,23.3,30.31,SSW,212,0.0,0.0,83,0.00,,,0.04,0,WeatherCatV1.20B785,2013-12-14 04:45:00,
2013-12-13 23:46:00,27.8,23.3,30.31,SSW,212,0.0,1.0,83,0.00,,,0.04,0,WeatherCatV1.20B785,2013-12-14 04:46:00,
2013-12-13 23:48:00,27.8,23.6,30.31,SSW,212,1.0,1.0,84,0.00,,,0.04,0,WeatherCatV1.20B785,2013-12-14 04:48:00,
2013-12-13 23:50:00,27.8,23.6,30.32,SSW,212,0.0,1.0,84,0.00,,,0.04,0,WeatherCatV1.20B785,2013-12-14 04:50:00,
2013-12-13 23:51:00,27.8,23.6,30.31,SSW,212,0.0,1.0,84,0.00,,,0.04,0,WeatherCatV1.20B785,2013-12-14 04:51:00,
2013-12-13 23:53:00,27.8,23.6,30.31,SSW,212,1.0,1.0,84,0.00,,,0.04,0,WeatherCatV1.20B785,2013-12-14 04:53:00,
2013-12-13 23:55:00,27.8,23.3,30.31,SSW,212,0.0,1.0,83,0.00,,,0.04,0,WeatherCatV1.20B785,2013-12-14 04:55:00,
2013-12-13 23:56:00,27.8,23.3,30.31,SSW,212,0.0,1.0,83,0.00,,,0.04,0,WeatherCatV1.20B785,2013-12-14 04:56:00,
2013-12-13 23:57:00,27.8,23.3,30.31,SSW,212,0.0,1.0,83,0.00,,,0.04,0,WeatherCatV1.20B785,2013-12-14 04:57:00,
2013-12-13 23:59:00,27.8,23.6,30.31,SSW,212,0.0,0.0,84,0.00,,,0.04,0,WeatherCatV1.20B785,2013-12-14 04:59:00,